<?xml version="1.0" encoding="UTF-8" standalone="no" ?>
<gpx xmlns="http://www.topografix.com/GPX/1/1" xmlns:xsi="http://www.w3.org/2001/XMLSchema-instance" xsi:schemaLocation="http://www.topografix.com/GPX/1/1 http://www.topografix.com/GPX/1/1/gpx.xsd" version="1.1" creator="VisuGPX - https://www.visugpx.com">
  <metadata>
    <name>ITI0589 2020 Le Chemin fais art-MNT</name>
  </metadata>
  <wpt lat="45.89224" lon="2.87699">
    <ele>773</ele>
    <name><![CDATA[1]]></name>
  </wpt>
  <wpt lat="45.89225" lon="2.88661">
    <ele>851</ele>
    <name><![CDATA[2]]></name>
  </wpt>
  <wpt lat="45.89667" lon="2.88687">
    <ele>871</ele>
    <name><![CDATA[3]]></name>
  </wpt>
  <wpt lat="45.89259" lon="2.8608">
    <ele>776.787476</ele>
    <name><![CDATA[D]]></name>
  </wpt>
  <trk>
    <name><![CDATA[ITI0589 2020 Le Chemin fais art-MNT]]></name>
    <trkseg>
      <trkpt lat="45.89255" lon="2.86088">
        <ele>776.900024</ele>
        <time>2020-08-23T15:17:52Z</time>
      </trkpt>
      <trkpt lat="45.89255" lon="2.86098">
        <ele>777.125</ele>
        <time>2020-08-23T15:20:00Z</time>
      </trkpt>
      <trkpt lat="45.89256" lon="2.86108">
        <ele>777.424988</ele>
        <time>2020-08-23T15:20:00Z</time>
      </trkpt>
      <trkpt lat="45.89252" lon="2.86116">
        <ele>777.682495</ele>
        <time>2020-08-23T15:20:00Z</time>
      </trkpt>
      <trkpt lat="45.8925" lon="2.86129">
        <ele>778.087524</ele>
        <time>2020-08-23T15:20:00Z</time>
      </trkpt>
      <trkpt lat="45.8925" lon="2.86142">
        <ele>778.492493</ele>
        <time>2020-08-23T15:20:00Z</time>
      </trkpt>
      <trkpt lat="45.89248" lon="2.86155">
        <ele>778.900024</ele>
        <time>2020-08-23T15:20:00Z</time>
      </trkpt>
      <trkpt lat="45.89251" lon="2.86169">
        <ele>779.430115</ele>
        <time>2020-08-23T15:20:00Z</time>
      </trkpt>
      <trkpt lat="45.89252" lon="2.86182">
        <ele>779.926819</ele>
        <time>2020-08-23T15:20:00Z</time>
      </trkpt>
      <trkpt lat="45.89254" lon="2.86195">
        <ele>780.402832</ele>
        <time>2020-08-23T15:20:00Z</time>
      </trkpt>
      <trkpt lat="45.89255" lon="2.86208">
        <ele>780.887146</ele>
        <time>2020-08-23T15:20:00Z</time>
      </trkpt>
      <trkpt lat="45.89254" lon="2.86223">
        <ele>781.445007</ele>
        <time>2020-08-23T15:20:00Z</time>
      </trkpt>
      <trkpt lat="45.89254" lon="2.86236">
        <ele>781.949341</ele>
        <time>2020-08-23T15:22:08Z</time>
      </trkpt>
      <trkpt lat="45.89252" lon="2.86249">
        <ele>782.502991</ele>
        <time>2020-08-23T15:22:08Z</time>
      </trkpt>
      <trkpt lat="45.89255" lon="2.86263">
        <ele>782.930542</ele>
        <time>2020-08-23T15:22:08Z</time>
      </trkpt>
      <trkpt lat="45.89262" lon="2.86272">
        <ele>783.004028</ele>
        <time>2020-08-23T15:28:32Z</time>
      </trkpt>
      <trkpt lat="45.8926" lon="2.86285">
        <ele>783.560547</ele>
        <time>2020-08-23T15:28:32Z</time>
      </trkpt>
      <trkpt lat="45.89258" lon="2.863">
        <ele>784.22998</ele>
        <time>2020-08-23T15:28:32Z</time>
      </trkpt>
      <trkpt lat="45.89262" lon="2.86314">
        <ele>784.651367</ele>
        <time>2020-08-23T15:28:32Z</time>
      </trkpt>
      <trkpt lat="45.8926" lon="2.86327">
        <ele>785.280884</ele>
        <time>2020-08-23T15:28:32Z</time>
      </trkpt>
      <trkpt lat="45.89259" lon="2.8633">
        <ele>785.42218</ele>
        <time>2015-11-03T16:57:49Z</time>
      </trkpt>
      <trkpt lat="45.8925" lon="2.86348">
        <ele>786.395996</ele>
        <time>2015-11-03T16:57:49Z</time>
      </trkpt>
      <trkpt lat="45.89249" lon="2.86361">
        <ele>786.977966</ele>
        <time>2015-11-03T16:57:49Z</time>
      </trkpt>
      <trkpt lat="45.89248" lon="2.86368">
        <ele>787.304016</ele>
        <time>2015-11-03T16:57:49Z</time>
      </trkpt>
      <trkpt lat="45.89248" lon="2.86375">
        <ele>787.611206</ele>
        <time>2015-11-03T16:57:49Z</time>
      </trkpt>
      <trkpt lat="45.89248" lon="2.8638">
        <ele>787.841614</ele>
        <time>2015-11-03T16:57:49Z</time>
      </trkpt>
      <trkpt lat="45.89248" lon="2.86388">
        <ele>788.176392</ele>
        <time>2015-11-03T16:57:49Z</time>
      </trkpt>
      <trkpt lat="45.89248" lon="2.86392">
        <ele>788.381592</ele>
        <time>2015-11-03T16:57:49Z</time>
      </trkpt>
      <trkpt lat="45.89247" lon="2.86406">
        <ele>788.990479</ele>
        <time>2015-11-03T16:57:49Z</time>
      </trkpt>
      <trkpt lat="45.89247" lon="2.86411">
        <ele>789.19989</ele>
        <time>2015-11-03T16:57:49Z</time>
      </trkpt>
      <trkpt lat="45.89247" lon="2.86419">
        <ele>789.4505</ele>
        <time>2015-11-03T16:57:49Z</time>
      </trkpt>
      <trkpt lat="45.89245" lon="2.86434">
        <ele>789.623291</ele>
        <time>2015-11-03T16:57:49Z</time>
      </trkpt>
      <trkpt lat="45.89241" lon="2.86443">
        <ele>789.757568</ele>
        <time>2015-11-03T16:57:49Z</time>
      </trkpt>
      <trkpt lat="45.89241" lon="2.86451">
        <ele>789.905884</ele>
        <time>2015-11-03T16:57:49Z</time>
      </trkpt>
      <trkpt lat="45.8924" lon="2.86458">
        <ele>790.046448</ele>
        <time>2015-11-03T16:57:49Z</time>
      </trkpt>
      <trkpt lat="45.89238" lon="2.86472">
        <ele>790.371094</ele>
        <time>2015-11-03T16:57:49Z</time>
      </trkpt>
      <trkpt lat="45.89236" lon="2.86479">
        <ele>790.598022</ele>
        <time>2015-11-03T16:57:49Z</time>
      </trkpt>
      <trkpt lat="45.89234" lon="2.86484">
        <ele>790.727539</ele>
        <time>2015-11-03T16:57:49Z</time>
      </trkpt>
      <trkpt lat="45.89231" lon="2.86493">
        <ele>790.874023</ele>
        <time>2015-11-03T16:57:49Z</time>
      </trkpt>
      <trkpt lat="45.89229" lon="2.865">
        <ele>790.949219</ele>
        <time>2015-11-03T16:57:49Z</time>
      </trkpt>
      <trkpt lat="45.89227" lon="2.86507">
        <ele>790.997498</ele>
        <time>2015-11-03T16:57:49Z</time>
      </trkpt>
      <trkpt lat="45.89215" lon="2.86515">
        <ele>791.018921</ele>
        <time>2015-11-03T16:57:49Z</time>
      </trkpt>
      <trkpt lat="45.89205" lon="2.86522">
        <ele>791.156555</ele>
        <time>2015-11-03T16:57:49Z</time>
      </trkpt>
      <trkpt lat="45.89189" lon="2.86529">
        <ele>791.457947</ele>
        <time>2015-11-03T16:57:49Z</time>
      </trkpt>
      <trkpt lat="45.89183" lon="2.86536">
        <ele>791.730103</ele>
        <time>2015-11-03T16:57:49Z</time>
      </trkpt>
      <trkpt lat="45.89183" lon="2.86544">
        <ele>791.967712</ele>
        <time>2015-11-03T16:57:49Z</time>
      </trkpt>
      <trkpt lat="45.89188" lon="2.86553">
        <ele>792.157532</ele>
        <time>2015-11-03T16:57:49Z</time>
      </trkpt>
      <trkpt lat="45.89187" lon="2.86561">
        <ele>792.414978</ele>
        <time>2015-11-03T16:57:49Z</time>
      </trkpt>
      <trkpt lat="45.89189" lon="2.86566">
        <ele>792.532471</ele>
        <time>2015-11-03T16:57:49Z</time>
      </trkpt>
      <trkpt lat="45.89184" lon="2.86574">
        <ele>792.892517</ele>
        <time>2015-11-03T16:57:49Z</time>
      </trkpt>
      <trkpt lat="45.89162" lon="2.86582">
        <ele>793.457764</ele>
        <time>2015-11-03T16:57:49Z</time>
      </trkpt>
      <trkpt lat="45.89146" lon="2.86587">
        <ele>793.89325</ele>
        <time>2015-11-03T16:57:49Z</time>
      </trkpt>
      <trkpt lat="45.89142" lon="2.86599">
        <ele>794.493286</ele>
        <time>2015-11-03T16:57:49Z</time>
      </trkpt>
      <trkpt lat="45.89141" lon="2.866">
        <ele>794.542603</ele>
        <time>2015-11-03T16:57:49Z</time>
      </trkpt>
      <trkpt lat="45.89138" lon="2.86606">
        <ele>794.890564</ele>
        <time>2015-11-03T16:57:49Z</time>
      </trkpt>
      <trkpt lat="45.89135" lon="2.86614">
        <ele>795.30072</ele>
        <time>2015-11-03T16:57:49Z</time>
      </trkpt>
      <trkpt lat="45.89132" lon="2.8662">
        <ele>795.647827</ele>
        <time>2015-11-03T16:57:49Z</time>
      </trkpt>
      <trkpt lat="45.8913" lon="2.86626">
        <ele>795.973022</ele>
        <time>2015-11-03T16:57:49Z</time>
      </trkpt>
      <trkpt lat="45.89127" lon="2.86634">
        <ele>796.338928</ele>
        <time>2015-11-03T16:57:49Z</time>
      </trkpt>
      <trkpt lat="45.89125" lon="2.86643">
        <ele>796.722473</ele>
        <time>2015-11-03T16:57:49Z</time>
      </trkpt>
      <trkpt lat="45.89122" lon="2.86652">
        <ele>797.158936</ele>
        <time>2015-11-03T16:57:49Z</time>
      </trkpt>
      <trkpt lat="45.8912" lon="2.86661">
        <ele>797.548035</ele>
        <time>2015-11-03T16:57:49Z</time>
      </trkpt>
      <trkpt lat="45.89118" lon="2.8667">
        <ele>797.893799</ele>
        <time>2015-11-03T16:57:49Z</time>
      </trkpt>
      <trkpt lat="45.89115" lon="2.86677">
        <ele>798.14679</ele>
        <time>2015-11-03T16:57:49Z</time>
      </trkpt>
      <trkpt lat="45.89112" lon="2.86686">
        <ele>798.443115</ele>
        <time>2015-11-03T16:57:49Z</time>
      </trkpt>
      <trkpt lat="45.89108" lon="2.86692">
        <ele>798.703674</ele>
        <time>2015-11-03T16:57:49Z</time>
      </trkpt>
      <trkpt lat="45.89105" lon="2.867">
        <ele>799.042297</ele>
        <time>2015-11-03T16:57:49Z</time>
      </trkpt>
      <trkpt lat="45.89102" lon="2.86707">
        <ele>799.386536</ele>
        <time>2015-11-03T16:57:49Z</time>
      </trkpt>
      <trkpt lat="45.89099" lon="2.86714">
        <ele>799.751831</ele>
        <time>2015-11-03T16:57:49Z</time>
      </trkpt>
      <trkpt lat="45.89096" lon="2.86722">
        <ele>800.161438</ele>
        <time>2015-11-03T16:57:49Z</time>
      </trkpt>
      <trkpt lat="45.89093" lon="2.86729">
        <ele>800.605591</ele>
        <time>2015-11-03T16:57:49Z</time>
      </trkpt>
      <trkpt lat="45.89089" lon="2.86737">
        <ele>800.988342</ele>
        <time>2015-11-03T16:57:49Z</time>
      </trkpt>
      <trkpt lat="45.89085" lon="2.86744">
        <ele>800.804321</ele>
        <time>2015-11-03T16:57:49Z</time>
      </trkpt>
      <trkpt lat="45.89082" lon="2.86751">
        <ele>800.657043</ele>
        <time>2015-11-03T16:57:49Z</time>
      </trkpt>
      <trkpt lat="45.89078" lon="2.86758">
        <ele>800.544983</ele>
        <time>2015-11-03T16:57:49Z</time>
      </trkpt>
      <trkpt lat="45.89075" lon="2.86765">
        <ele>800.450317</ele>
        <time>2015-11-03T16:57:49Z</time>
      </trkpt>
      <trkpt lat="45.89072" lon="2.86772">
        <ele>800.378418</ele>
        <time>2015-11-03T16:57:49Z</time>
      </trkpt>
      <trkpt lat="45.89069" lon="2.86779">
        <ele>800.349548</ele>
        <time>2015-11-03T16:57:49Z</time>
      </trkpt>
      <trkpt lat="45.89066" lon="2.86786">
        <ele>800.334595</ele>
        <time>2015-11-03T16:57:49Z</time>
      </trkpt>
      <trkpt lat="45.89062" lon="2.86795">
        <ele>800.343018</ele>
        <time>2015-11-03T16:57:49Z</time>
      </trkpt>
      <trkpt lat="45.89059" lon="2.86801">
        <ele>800.443787</ele>
        <time>2015-11-03T16:57:49Z</time>
      </trkpt>
      <trkpt lat="45.89055" lon="2.8681">
        <ele>800.463745</ele>
        <time>2015-11-03T16:57:49Z</time>
      </trkpt>
      <trkpt lat="45.89052" lon="2.86816">
        <ele>800.517517</ele>
        <time>2015-11-03T16:57:49Z</time>
      </trkpt>
      <trkpt lat="45.89048" lon="2.86824">
        <ele>800.543762</ele>
        <time>2015-11-03T16:57:49Z</time>
      </trkpt>
      <trkpt lat="45.89046" lon="2.86832">
        <ele>800.53717</ele>
        <time>2015-11-03T16:57:49Z</time>
      </trkpt>
      <trkpt lat="45.89043" lon="2.8684">
        <ele>800.564453</ele>
        <time>2015-11-03T16:57:49Z</time>
      </trkpt>
      <trkpt lat="45.8904" lon="2.86848">
        <ele>800.591675</ele>
        <time>2015-11-03T16:57:49Z</time>
      </trkpt>
      <trkpt lat="45.89038" lon="2.86856">
        <ele>800.655273</ele>
        <time>2015-11-03T16:57:49Z</time>
      </trkpt>
      <trkpt lat="45.89034" lon="2.86863">
        <ele>800.822083</ele>
        <time>2015-11-03T16:57:49Z</time>
      </trkpt>
      <trkpt lat="45.89031" lon="2.86872">
        <ele>801.222473</ele>
        <time>2015-11-03T16:57:49Z</time>
      </trkpt>
      <trkpt lat="45.89028" lon="2.8688">
        <ele>801.679993</ele>
        <time>2015-11-03T16:57:49Z</time>
      </trkpt>
      <trkpt lat="45.89025" lon="2.86888">
        <ele>802.107483</ele>
        <time>2015-11-03T16:57:49Z</time>
      </trkpt>
      <trkpt lat="45.89023" lon="2.86895">
        <ele>802.472473</ele>
        <time>2015-11-03T16:57:49Z</time>
      </trkpt>
      <trkpt lat="45.8902" lon="2.86903">
        <ele>802.909973</ele>
        <time>2015-11-03T16:57:49Z</time>
      </trkpt>
      <trkpt lat="45.89017" lon="2.86911">
        <ele>803.349976</ele>
        <time>2015-11-03T16:57:49Z</time>
      </trkpt>
      <trkpt lat="45.89015" lon="2.86919">
        <ele>803.77002</ele>
        <time>2015-11-03T16:57:49Z</time>
      </trkpt>
      <trkpt lat="45.89012" lon="2.86927">
        <ele>804.222473</ele>
        <time>2015-11-03T16:57:49Z</time>
      </trkpt>
      <trkpt lat="45.89009" lon="2.86935">
        <ele>804.553772</ele>
        <time>2015-11-03T16:57:49Z</time>
      </trkpt>
      <trkpt lat="45.89005" lon="2.86942">
        <ele>804.933716</ele>
        <time>2015-11-03T16:57:49Z</time>
      </trkpt>
      <trkpt lat="45.89001" lon="2.8695">
        <ele>805.303711</ele>
        <time>2015-11-03T16:57:49Z</time>
      </trkpt>
      <trkpt lat="45.88997" lon="2.86956">
        <ele>805.537659</ele>
        <time>2015-11-03T16:57:49Z</time>
      </trkpt>
      <trkpt lat="45.88993" lon="2.86963">
        <ele>805.766113</ele>
        <time>2015-11-03T16:57:49Z</time>
      </trkpt>
      <trkpt lat="45.88989" lon="2.86968">
        <ele>806.012512</ele>
        <time>2015-11-03T16:57:49Z</time>
      </trkpt>
      <trkpt lat="45.88985" lon="2.86974">
        <ele>806.28302</ele>
        <time>2015-11-03T16:57:49Z</time>
      </trkpt>
      <trkpt lat="45.88981" lon="2.86982">
        <ele>806.611694</ele>
        <time>2015-11-03T16:57:49Z</time>
      </trkpt>
      <trkpt lat="45.88978" lon="2.8699">
        <ele>806.953918</ele>
        <time>2015-11-03T16:57:49Z</time>
      </trkpt>
      <trkpt lat="45.88974" lon="2.86998">
        <ele>807.307495</ele>
        <time>2015-11-03T16:57:49Z</time>
      </trkpt>
      <trkpt lat="45.8897" lon="2.87003">
        <ele>807.657471</ele>
        <time>2015-11-03T16:57:49Z</time>
      </trkpt>
      <trkpt lat="45.88965" lon="2.87006">
        <ele>807.987488</ele>
        <time>2015-11-03T16:57:49Z</time>
      </trkpt>
      <trkpt lat="45.88958" lon="2.87007">
        <ele>808.307495</ele>
        <time>2015-11-03T16:57:49Z</time>
      </trkpt>
      <trkpt lat="45.88953" lon="2.8701">
        <ele>808.517517</ele>
        <time>2015-11-03T16:57:49Z</time>
      </trkpt>
      <trkpt lat="45.88947" lon="2.87012">
        <ele>808.590027</ele>
        <time>2015-11-03T16:57:49Z</time>
      </trkpt>
      <trkpt lat="45.88941" lon="2.87014">
        <ele>808.647522</ele>
        <time>2015-11-03T16:57:49Z</time>
      </trkpt>
      <trkpt lat="45.88936" lon="2.87019">
        <ele>808.815002</ele>
        <time>2015-11-03T16:57:49Z</time>
      </trkpt>
      <trkpt lat="45.88931" lon="2.87025">
        <ele>808.992493</ele>
        <time>2015-11-03T16:57:49Z</time>
      </trkpt>
      <trkpt lat="45.88926" lon="2.87032">
        <ele>809.210022</ele>
        <time>2015-11-03T16:57:49Z</time>
      </trkpt>
      <trkpt lat="45.88921" lon="2.8704">
        <ele>809.474976</ele>
        <time>2015-11-03T16:57:49Z</time>
      </trkpt>
      <trkpt lat="45.88916" lon="2.87047">
        <ele>809.69751</ele>
        <time>2015-11-03T16:57:49Z</time>
      </trkpt>
      <trkpt lat="45.88911" lon="2.87054">
        <ele>809.909973</ele>
        <time>2015-11-03T16:57:49Z</time>
      </trkpt>
      <trkpt lat="45.88906" lon="2.87059">
        <ele>810.155029</ele>
        <time>2015-11-03T16:57:49Z</time>
      </trkpt>
      <trkpt lat="45.889" lon="2.87069">
        <ele>810.585022</ele>
        <time>2015-11-03T16:57:49Z</time>
      </trkpt>
      <trkpt lat="45.88895" lon="2.87076">
        <ele>810.942505</ele>
        <time>2015-11-03T16:57:49Z</time>
      </trkpt>
      <trkpt lat="45.88889" lon="2.87081">
        <ele>811.217529</ele>
        <time>2015-11-03T16:57:49Z</time>
      </trkpt>
      <trkpt lat="45.88884" lon="2.87085">
        <ele>811.460022</ele>
        <time>2015-11-03T16:57:49Z</time>
      </trkpt>
      <trkpt lat="45.88879" lon="2.87087">
        <ele>811.632507</ele>
        <time>2015-11-03T16:57:49Z</time>
      </trkpt>
      <trkpt lat="45.88874" lon="2.87089">
        <ele>811.8125</ele>
        <time>2015-11-03T16:57:49Z</time>
      </trkpt>
      <trkpt lat="45.8887" lon="2.87093">
        <ele>812.017517</ele>
        <time>2015-11-03T16:57:49Z</time>
      </trkpt>
      <trkpt lat="45.88866" lon="2.87097">
        <ele>812.234985</ele>
        <time>2015-11-03T16:57:49Z</time>
      </trkpt>
      <trkpt lat="45.8886" lon="2.87102">
        <ele>812.422485</ele>
        <time>2015-11-03T16:57:49Z</time>
      </trkpt>
      <trkpt lat="45.88857" lon="2.87108">
        <ele>812.602478</ele>
        <time>2015-11-03T16:57:49Z</time>
      </trkpt>
      <trkpt lat="45.88854" lon="2.87116">
        <ele>812.837524</ele>
        <time>2015-11-03T16:57:49Z</time>
      </trkpt>
      <trkpt lat="45.88851" lon="2.87123">
        <ele>813.038757</ele>
        <time>2015-11-03T16:57:49Z</time>
      </trkpt>
      <trkpt lat="45.88848" lon="2.87132">
        <ele>813.171265</ele>
        <time>2015-11-03T16:57:49Z</time>
      </trkpt>
      <trkpt lat="45.88847" lon="2.8714">
        <ele>813.297485</ele>
        <time>2015-11-03T16:57:49Z</time>
      </trkpt>
      <trkpt lat="45.88846" lon="2.87148">
        <ele>813.421265</ele>
        <time>2015-11-03T16:57:49Z</time>
      </trkpt>
      <trkpt lat="45.88844" lon="2.87157">
        <ele>813.558777</ele>
        <time>2015-11-03T16:57:49Z</time>
      </trkpt>
      <trkpt lat="45.88843" lon="2.87165">
        <ele>813.679993</ele>
        <time>2015-11-03T16:57:49Z</time>
      </trkpt>
      <trkpt lat="45.8884" lon="2.87173">
        <ele>813.818726</ele>
        <time>2015-11-03T16:57:49Z</time>
      </trkpt>
      <trkpt lat="45.88838" lon="2.87182">
        <ele>813.951233</ele>
        <time>2015-11-03T16:57:49Z</time>
      </trkpt>
      <trkpt lat="45.88834" lon="2.8719">
        <ele>814.023621</ele>
        <time>2015-11-03T16:57:49Z</time>
      </trkpt>
      <trkpt lat="45.8883" lon="2.87197">
        <ele>814.042908</ele>
        <time>2015-11-03T16:57:49Z</time>
      </trkpt>
      <trkpt lat="45.88826" lon="2.87203">
        <ele>814.039551</ele>
        <time>2015-11-03T16:57:49Z</time>
      </trkpt>
      <trkpt lat="45.88821" lon="2.8721">
        <ele>814.015625</ele>
        <time>2015-11-03T16:57:49Z</time>
      </trkpt>
      <trkpt lat="45.88817" lon="2.87214">
        <ele>813.97052</ele>
        <time>2015-11-03T16:57:49Z</time>
      </trkpt>
      <trkpt lat="45.88811" lon="2.87218">
        <ele>813.898376</ele>
        <time>2015-11-03T16:57:49Z</time>
      </trkpt>
      <trkpt lat="45.88805" lon="2.87221">
        <ele>813.824097</ele>
        <time>2015-11-03T16:57:49Z</time>
      </trkpt>
      <trkpt lat="45.888" lon="2.87226">
        <ele>813.722107</ele>
        <time>2015-11-03T16:57:49Z</time>
      </trkpt>
      <trkpt lat="45.88796" lon="2.87232">
        <ele>813.618713</ele>
        <time>2015-11-03T16:57:49Z</time>
      </trkpt>
      <trkpt lat="45.88791" lon="2.87236">
        <ele>813.48877</ele>
        <time>2015-11-03T16:57:49Z</time>
      </trkpt>
      <trkpt lat="45.88786" lon="2.87242">
        <ele>813.350281</ele>
        <time>2015-11-03T16:57:49Z</time>
      </trkpt>
      <trkpt lat="45.88782" lon="2.87248">
        <ele>813.193298</ele>
        <time>2015-11-03T16:57:49Z</time>
      </trkpt>
      <trkpt lat="45.88778" lon="2.87254">
        <ele>813.018372</ele>
        <time>2015-11-03T16:57:49Z</time>
      </trkpt>
      <trkpt lat="45.88775" lon="2.87261">
        <ele>812.828064</ele>
        <time>2015-11-03T16:57:49Z</time>
      </trkpt>
      <trkpt lat="45.88771" lon="2.87267">
        <ele>812.528015</ele>
        <time>2015-11-03T16:57:49Z</time>
      </trkpt>
      <trkpt lat="45.88767" lon="2.87274">
        <ele>812.161255</ele>
        <time>2015-11-03T16:57:49Z</time>
      </trkpt>
      <trkpt lat="45.88764" lon="2.8728">
        <ele>811.824585</ele>
        <time>2015-11-03T16:57:49Z</time>
      </trkpt>
      <trkpt lat="45.88761" lon="2.87287">
        <ele>811.455994</ele>
        <time>2015-11-03T16:57:49Z</time>
      </trkpt>
      <trkpt lat="45.88758" lon="2.87293">
        <ele>811.135498</ele>
        <time>2015-11-03T16:57:49Z</time>
      </trkpt>
      <trkpt lat="45.88757" lon="2.87301">
        <ele>810.798523</ele>
        <time>2015-11-03T16:57:49Z</time>
      </trkpt>
      <trkpt lat="45.88757" lon="2.87309">
        <ele>810.594421</ele>
        <time>2015-11-03T16:57:49Z</time>
      </trkpt>
      <trkpt lat="45.88757" lon="2.87316">
        <ele>810.41333</ele>
        <time>2015-11-03T16:57:49Z</time>
      </trkpt>
      <trkpt lat="45.8876" lon="2.87322">
        <ele>810.410095</ele>
        <time>2015-11-03T16:57:49Z</time>
      </trkpt>
      <trkpt lat="45.88763" lon="2.8733">
        <ele>810.453125</ele>
        <time>2015-11-03T16:57:49Z</time>
      </trkpt>
      <trkpt lat="45.88767" lon="2.87336">
        <ele>810.606689</ele>
        <time>2015-11-03T16:57:49Z</time>
      </trkpt>
      <trkpt lat="45.88773" lon="2.87339">
        <ele>811.106934</ele>
        <time>2015-11-03T16:57:49Z</time>
      </trkpt>
      <trkpt lat="45.88778" lon="2.87342">
        <ele>811.299988</ele>
        <time>2015-11-03T16:57:49Z</time>
      </trkpt>
      <trkpt lat="45.88784" lon="2.87345">
        <ele>811.482483</ele>
        <time>2015-11-03T16:57:49Z</time>
      </trkpt>
      <trkpt lat="45.88788" lon="2.8735">
        <ele>811.530029</ele>
        <time>2015-11-03T16:57:49Z</time>
      </trkpt>
      <trkpt lat="45.88792" lon="2.87355">
        <ele>811.522522</ele>
        <time>2015-11-03T16:57:49Z</time>
      </trkpt>
      <trkpt lat="45.88796" lon="2.87363">
        <ele>811.450012</ele>
        <time>2015-11-03T16:57:49Z</time>
      </trkpt>
      <trkpt lat="45.88799" lon="2.87371">
        <ele>811.325012</ele>
        <time>2015-11-03T16:57:49Z</time>
      </trkpt>
      <trkpt lat="45.888" lon="2.87378">
        <ele>811.134827</ele>
        <time>2015-11-03T16:57:49Z</time>
      </trkpt>
      <trkpt lat="45.88802" lon="2.87382">
        <ele>811.136963</ele>
        <time>2015-11-03T16:57:49Z</time>
      </trkpt>
      <trkpt lat="45.88806" lon="2.87388">
        <ele>811.097351</ele>
        <time>2015-11-03T16:57:49Z</time>
      </trkpt>
      <trkpt lat="45.88811" lon="2.87394">
        <ele>811.103149</ele>
        <time>2015-11-03T16:57:49Z</time>
      </trkpt>
      <trkpt lat="45.88817" lon="2.87401">
        <ele>811.194275</ele>
        <time>2015-11-03T16:57:49Z</time>
      </trkpt>
      <trkpt lat="45.88821" lon="2.87406">
        <ele>811.23999</ele>
        <time>2015-11-03T16:57:49Z</time>
      </trkpt>
      <trkpt lat="45.88825" lon="2.87413">
        <ele>811.210022</ele>
        <time>2015-11-03T16:57:49Z</time>
      </trkpt>
      <trkpt lat="45.88828" lon="2.8742">
        <ele>811.132507</ele>
        <time>2015-11-03T16:57:49Z</time>
      </trkpt>
      <trkpt lat="45.88833" lon="2.87426">
        <ele>811.17749</ele>
        <time>2015-11-03T16:57:49Z</time>
      </trkpt>
      <trkpt lat="45.88838" lon="2.87429">
        <ele>811.297485</ele>
        <time>2015-11-03T16:57:49Z</time>
      </trkpt>
      <trkpt lat="45.88842" lon="2.87433">
        <ele>811.367493</ele>
        <time>2015-11-03T16:57:49Z</time>
      </trkpt>
      <trkpt lat="45.88846" lon="2.87439">
        <ele>811.377502</ele>
        <time>2015-11-03T16:57:49Z</time>
      </trkpt>
      <trkpt lat="45.88854" lon="2.87438">
        <ele>811.734985</ele>
        <time>2015-11-03T16:57:49Z</time>
      </trkpt>
      <trkpt lat="45.8886" lon="2.8744">
        <ele>811.95752</ele>
        <time>2015-11-03T16:57:49Z</time>
      </trkpt>
      <trkpt lat="45.88868" lon="2.87442">
        <ele>812.27002</ele>
        <time>2015-11-03T16:57:49Z</time>
      </trkpt>
      <trkpt lat="45.88877" lon="2.87442">
        <ele>812.64502</ele>
        <time>2015-11-03T16:57:49Z</time>
      </trkpt>
      <trkpt lat="45.88883" lon="2.87444">
        <ele>812.825073</ele>
        <time>2015-11-03T16:57:49Z</time>
      </trkpt>
      <trkpt lat="45.88887" lon="2.87446">
        <ele>813.016296</ele>
        <time>2015-11-03T16:57:49Z</time>
      </trkpt>
      <trkpt lat="45.88892" lon="2.87447">
        <ele>813.164673</ele>
        <time>2015-11-03T16:57:49Z</time>
      </trkpt>
      <trkpt lat="45.88895" lon="2.87451">
        <ele>813.2276</ele>
        <time>2015-11-03T16:57:49Z</time>
      </trkpt>
      <trkpt lat="45.88899" lon="2.87458">
        <ele>813.170593</ele>
        <time>2015-11-03T16:57:49Z</time>
      </trkpt>
      <trkpt lat="45.88904" lon="2.87463">
        <ele>813.207275</ele>
        <time>2015-11-03T16:57:49Z</time>
      </trkpt>
      <trkpt lat="45.88907" lon="2.8747">
        <ele>813.130371</ele>
        <time>2015-11-03T16:57:49Z</time>
      </trkpt>
      <trkpt lat="45.88913" lon="2.87475">
        <ele>813.030029</ele>
        <time>2015-11-03T16:57:49Z</time>
      </trkpt>
      <trkpt lat="45.88916" lon="2.87481">
        <ele>812.837524</ele>
        <time>2015-11-03T16:57:49Z</time>
      </trkpt>
      <trkpt lat="45.88918" lon="2.8749">
        <ele>812.57251</ele>
        <time>2015-11-03T16:57:49Z</time>
      </trkpt>
      <trkpt lat="45.8892" lon="2.87497">
        <ele>812.35498</ele>
        <time>2015-11-03T16:57:49Z</time>
      </trkpt>
      <trkpt lat="45.88923" lon="2.87504">
        <ele>812.13501</ele>
        <time>2015-11-03T16:57:49Z</time>
      </trkpt>
      <trkpt lat="45.88926" lon="2.8751">
        <ele>811.840332</ele>
        <time>2015-11-03T16:57:49Z</time>
      </trkpt>
      <trkpt lat="45.88929" lon="2.87516">
        <ele>811.480347</ele>
        <time>2015-11-03T16:57:49Z</time>
      </trkpt>
      <trkpt lat="45.88934" lon="2.87518">
        <ele>811.278625</ele>
        <time>2015-11-03T16:57:49Z</time>
      </trkpt>
      <trkpt lat="45.88942" lon="2.8752">
        <ele>811.15686</ele>
        <time>2015-11-03T16:57:49Z</time>
      </trkpt>
      <trkpt lat="45.88947" lon="2.87518">
        <ele>811.233765</ele>
        <time>2015-11-03T16:57:49Z</time>
      </trkpt>
      <trkpt lat="45.88952" lon="2.87518">
        <ele>811.289612</ele>
        <time>2015-11-03T16:57:49Z</time>
      </trkpt>
      <trkpt lat="45.88958" lon="2.87517">
        <ele>811.192383</ele>
        <time>2015-11-03T16:57:49Z</time>
      </trkpt>
      <trkpt lat="45.88965" lon="2.87517">
        <ele>811.045837</ele>
        <time>2015-11-03T16:57:49Z</time>
      </trkpt>
      <trkpt lat="45.8897" lon="2.87514">
        <ele>811.168152</ele>
        <time>2015-11-03T16:57:49Z</time>
      </trkpt>
      <trkpt lat="45.88975" lon="2.87512">
        <ele>811.221802</ele>
        <time>2015-11-03T16:57:49Z</time>
      </trkpt>
      <trkpt lat="45.8898" lon="2.8751">
        <ele>811.258118</ele>
        <time>2015-11-03T16:57:49Z</time>
      </trkpt>
      <trkpt lat="45.88987" lon="2.87508">
        <ele>811.289795</ele>
        <time>2015-11-03T16:57:49Z</time>
      </trkpt>
      <trkpt lat="45.88992" lon="2.8751">
        <ele>810.995728</ele>
        <time>2015-11-03T16:57:49Z</time>
      </trkpt>
      <trkpt lat="45.89" lon="2.87515">
        <ele>810.461304</ele>
        <time>2015-11-03T16:57:49Z</time>
      </trkpt>
      <trkpt lat="45.89005" lon="2.87518">
        <ele>810.06781</ele>
        <time>2015-11-03T16:57:49Z</time>
      </trkpt>
      <trkpt lat="45.89011" lon="2.87519">
        <ele>809.932373</ele>
        <time>2015-11-03T16:57:49Z</time>
      </trkpt>
      <trkpt lat="45.89018" lon="2.87522">
        <ele>809.663147</ele>
        <time>2015-11-03T16:57:49Z</time>
      </trkpt>
      <trkpt lat="45.89026" lon="2.87525">
        <ele>809.171875</ele>
        <time>2015-11-03T16:57:49Z</time>
      </trkpt>
      <trkpt lat="45.89031" lon="2.87529">
        <ele>808.706177</ele>
        <time>2015-11-03T16:57:49Z</time>
      </trkpt>
      <trkpt lat="45.89036" lon="2.87533">
        <ele>808.176208</ele>
        <time>2015-11-03T16:57:49Z</time>
      </trkpt>
      <trkpt lat="45.8904" lon="2.87534">
        <ele>807.976074</ele>
        <time>2015-11-03T16:57:49Z</time>
      </trkpt>
      <trkpt lat="45.89045" lon="2.87538">
        <ele>807.342651</ele>
        <time>2015-11-03T16:57:49Z</time>
      </trkpt>
      <trkpt lat="45.8905" lon="2.87541">
        <ele>806.515198</ele>
        <time>2015-11-03T16:57:49Z</time>
      </trkpt>
      <trkpt lat="45.89056" lon="2.87544">
        <ele>805.753296</ele>
        <time>2015-11-03T16:57:49Z</time>
      </trkpt>
      <trkpt lat="45.89061" lon="2.87548">
        <ele>804.946411</ele>
        <time>2015-11-03T16:57:49Z</time>
      </trkpt>
      <trkpt lat="45.89064" lon="2.87552">
        <ele>804.270386</ele>
        <time>2015-11-03T16:57:49Z</time>
      </trkpt>
      <trkpt lat="45.89069" lon="2.87556">
        <ele>803.579956</ele>
        <time>2015-11-03T16:57:49Z</time>
      </trkpt>
      <trkpt lat="45.89074" lon="2.87559">
        <ele>802.982483</ele>
        <time>2015-11-03T16:57:49Z</time>
      </trkpt>
      <trkpt lat="45.89079" lon="2.87564">
        <ele>802.287354</ele>
        <time>2015-11-03T16:57:49Z</time>
      </trkpt>
      <trkpt lat="45.89083" lon="2.87569">
        <ele>801.608643</ele>
        <time>2015-11-03T16:57:49Z</time>
      </trkpt>
      <trkpt lat="45.89089" lon="2.87573">
        <ele>800.918152</ele>
        <time>2015-11-03T16:57:49Z</time>
      </trkpt>
      <trkpt lat="45.89096" lon="2.87573">
        <ele>799.5802</ele>
        <time>2015-11-03T16:57:49Z</time>
      </trkpt>
      <trkpt lat="45.89102" lon="2.87575">
        <ele>798.271362</ele>
        <time>2015-11-03T16:57:49Z</time>
      </trkpt>
      <trkpt lat="45.89109" lon="2.87577">
        <ele>796.988342</ele>
        <time>2015-11-03T16:57:49Z</time>
      </trkpt>
      <trkpt lat="45.89113" lon="2.87579">
        <ele>796.046997</ele>
        <time>2015-11-03T16:57:49Z</time>
      </trkpt>
      <trkpt lat="45.89118" lon="2.8758">
        <ele>794.9375</ele>
        <time>2015-11-03T16:57:49Z</time>
      </trkpt>
      <trkpt lat="45.89122" lon="2.87583">
        <ele>794.053284</ele>
        <time>2015-11-03T16:57:49Z</time>
      </trkpt>
      <trkpt lat="45.89126" lon="2.87584">
        <ele>793.255005</ele>
        <time>2015-11-03T16:57:49Z</time>
      </trkpt>
      <trkpt lat="45.89133" lon="2.87588">
        <ele>791.722473</ele>
        <time>2015-11-03T16:57:49Z</time>
      </trkpt>
      <trkpt lat="45.89137" lon="2.87589">
        <ele>791.202515</ele>
        <time>2015-11-03T16:57:49Z</time>
      </trkpt>
      <trkpt lat="45.89143" lon="2.87593">
        <ele>790.122498</ele>
        <time>2015-11-03T16:57:49Z</time>
      </trkpt>
      <trkpt lat="45.89146" lon="2.87598">
        <ele>789.294983</ele>
        <time>2015-11-03T16:57:49Z</time>
      </trkpt>
      <trkpt lat="45.8915" lon="2.87602">
        <ele>788.580017</ele>
        <time>2015-11-03T16:57:49Z</time>
      </trkpt>
      <trkpt lat="45.89154" lon="2.87605">
        <ele>787.725037</ele>
        <time>2015-11-03T16:57:49Z</time>
      </trkpt>
      <trkpt lat="45.89159" lon="2.8761">
        <ele>786.710022</ele>
        <time>2015-11-03T16:57:49Z</time>
      </trkpt>
      <trkpt lat="45.89164" lon="2.87615">
        <ele>785.72998</ele>
        <time>2015-11-03T16:57:49Z</time>
      </trkpt>
      <trkpt lat="45.89168" lon="2.87618">
        <ele>784.982483</ele>
        <time>2015-11-03T16:57:49Z</time>
      </trkpt>
      <trkpt lat="45.89172" lon="2.8762">
        <ele>784.36499</ele>
        <time>2015-11-03T16:57:49Z</time>
      </trkpt>
      <trkpt lat="45.89178" lon="2.87622">
        <ele>783.467346</ele>
        <time>2015-11-03T16:57:49Z</time>
      </trkpt>
      <trkpt lat="45.89185" lon="2.87623">
        <ele>782.58429</ele>
        <time>2015-11-03T16:57:49Z</time>
      </trkpt>
      <trkpt lat="45.8919" lon="2.87621">
        <ele>782.060608</ele>
        <time>2015-11-03T16:57:49Z</time>
      </trkpt>
      <trkpt lat="45.89194" lon="2.87618">
        <ele>781.79364</ele>
        <time>2015-11-03T16:57:49Z</time>
      </trkpt>
      <trkpt lat="45.89198" lon="2.87615">
        <ele>781.496033</ele>
        <time>2015-11-03T16:57:49Z</time>
      </trkpt>
      <trkpt lat="45.89202" lon="2.8761">
        <ele>781.277466</ele>
        <time>2015-11-03T16:57:49Z</time>
      </trkpt>
      <trkpt lat="45.89207" lon="2.87606">
        <ele>780.810486</ele>
        <time>2015-11-03T16:57:49Z</time>
      </trkpt>
      <trkpt lat="45.89211" lon="2.87602">
        <ele>780.539673</ele>
        <time>2015-11-03T16:57:49Z</time>
      </trkpt>
      <trkpt lat="45.89213" lon="2.87595">
        <ele>780.59552</ele>
        <time>2015-11-03T16:57:49Z</time>
      </trkpt>
      <trkpt lat="45.89218" lon="2.87592">
        <ele>780.030823</ele>
        <time>2015-11-03T16:57:49Z</time>
      </trkpt>
      <trkpt lat="45.89222" lon="2.87586">
        <ele>779.647461</ele>
        <time>2015-11-03T16:57:49Z</time>
      </trkpt>
      <trkpt lat="45.89226" lon="2.87581">
        <ele>779.13501</ele>
        <time>2015-11-03T16:57:49Z</time>
      </trkpt>
      <trkpt lat="45.8923" lon="2.87577">
        <ele>778.755005</ele>
        <time>2015-11-03T16:57:49Z</time>
      </trkpt>
      <trkpt lat="45.89236" lon="2.87573">
        <ele>777.934998</ele>
        <time>2015-11-03T16:57:49Z</time>
      </trkpt>
      <trkpt lat="45.8924" lon="2.8757">
        <ele>777.340027</ele>
        <time>2015-11-03T16:57:49Z</time>
      </trkpt>
      <trkpt lat="45.89247" lon="2.8757">
        <ele>776.184998</ele>
        <time>2015-11-03T16:57:49Z</time>
      </trkpt>
      <trkpt lat="45.89248" lon="2.87571">
        <ele>775.974976</ele>
        <time>2015-11-03T16:57:49Z</time>
      </trkpt>
      <trkpt lat="45.89253" lon="2.87573">
        <ele>775.309998</ele>
        <time>2015-11-03T16:57:49Z</time>
      </trkpt>
      <trkpt lat="45.89258" lon="2.87578">
        <ele>774.372498</ele>
        <time>2015-11-03T16:57:49Z</time>
      </trkpt>
      <trkpt lat="45.89259" lon="2.87584">
        <ele>773.893738</ele>
        <time>2015-11-03T16:57:49Z</time>
      </trkpt>
      <trkpt lat="45.89261" lon="2.87592">
        <ele>773.331238</ele>
        <time>2015-11-03T16:57:49Z</time>
      </trkpt>
      <trkpt lat="45.89265" lon="2.876">
        <ele>772.352478</ele>
        <time>2015-11-03T16:57:49Z</time>
      </trkpt>
      <trkpt lat="45.89267" lon="2.87606">
        <ele>771.756226</ele>
        <time>2015-11-03T16:57:49Z</time>
      </trkpt>
      <trkpt lat="45.89266" lon="2.87613">
        <ele>771.423767</ele>
        <time>2015-11-03T16:57:49Z</time>
      </trkpt>
      <trkpt lat="45.89263" lon="2.87623">
        <ele>771.451233</ele>
        <time>2015-11-03T16:57:49Z</time>
      </trkpt>
      <trkpt lat="45.89261" lon="2.87631">
        <ele>771.42749</ele>
        <time>2015-11-03T16:57:49Z</time>
      </trkpt>
      <trkpt lat="45.89258" lon="2.87639">
        <ele>771.452515</ele>
        <time>2015-11-03T16:57:49Z</time>
      </trkpt>
      <trkpt lat="45.89253" lon="2.87644">
        <ele>772.139771</ele>
        <time>2015-11-03T16:57:49Z</time>
      </trkpt>
      <trkpt lat="45.8925" lon="2.87649">
        <ele>772.540771</ele>
        <time>2015-11-03T16:57:49Z</time>
      </trkpt>
      <trkpt lat="45.89247" lon="2.87655">
        <ele>772.859375</ele>
        <time>2015-11-03T16:57:49Z</time>
      </trkpt>
      <trkpt lat="45.89244" lon="2.87664">
        <ele>772.97644</ele>
        <time>2015-11-03T16:57:49Z</time>
      </trkpt>
      <trkpt lat="45.89242" lon="2.87668">
        <ele>773.11731</ele>
        <time>2015-11-03T16:57:49Z</time>
      </trkpt>
      <trkpt lat="45.89238" lon="2.8767">
        <ele>773.512878</ele>
        <time>2015-11-03T16:57:49Z</time>
      </trkpt>
      <trkpt lat="45.89234" lon="2.87676">
        <ele>773.653687</ele>
        <time>2015-11-03T16:57:49Z</time>
      </trkpt>
      <trkpt lat="45.89233" lon="2.87682">
        <ele>773.529358</ele>
        <time>2015-11-03T16:57:49Z</time>
      </trkpt>
      <trkpt lat="45.89229" lon="2.87691">
        <ele>773.367249</ele>
        <time>2015-11-03T16:57:49Z</time>
      </trkpt>
      <trkpt lat="45.89232" lon="2.87687">
        <ele>773.329834</ele>
        <time>2015-11-03T16:57:49Z</time>
      </trkpt>
      <trkpt lat="45.89229" lon="2.87693">
        <ele>773.307678</ele>
        <time>2015-11-03T16:57:49Z</time>
      </trkpt>
      <trkpt lat="45.89225" lon="2.87703">
        <ele>772.966431</ele>
        <time>2015-11-03T16:57:49Z</time>
      </trkpt>
      <trkpt lat="45.89221" lon="2.8771">
        <ele>773.436218</ele>
        <time>2015-11-03T16:57:49Z</time>
      </trkpt>
      <trkpt lat="45.89218" lon="2.87716">
        <ele>773.945618</ele>
        <time>2015-11-03T16:57:49Z</time>
      </trkpt>
      <trkpt lat="45.89214" lon="2.87725">
        <ele>774.695679</ele>
        <time>2015-11-03T16:57:49Z</time>
      </trkpt>
      <trkpt lat="45.89214" lon="2.87729">
        <ele>774.923706</ele>
        <time>2015-11-03T16:57:49Z</time>
      </trkpt>
      <trkpt lat="45.89219" lon="2.87736">
        <ele>775.140381</ele>
        <time>2015-11-03T16:57:49Z</time>
      </trkpt>
      <trkpt lat="45.89223" lon="2.87742">
        <ele>775.340149</ele>
        <time>2015-11-03T16:57:49Z</time>
      </trkpt>
      <trkpt lat="45.89227" lon="2.87746">
        <ele>775.58905</ele>
        <time>2015-11-03T16:57:49Z</time>
      </trkpt>
      <trkpt lat="45.89229" lon="2.87751">
        <ele>775.915955</ele>
        <time>2015-11-03T16:57:49Z</time>
      </trkpt>
      <trkpt lat="45.89233" lon="2.87753">
        <ele>776.104065</ele>
        <time>2015-11-03T16:57:49Z</time>
      </trkpt>
      <trkpt lat="45.89238" lon="2.87756">
        <ele>776.321045</ele>
        <time>2015-11-03T16:57:49Z</time>
      </trkpt>
      <trkpt lat="45.89239" lon="2.87762">
        <ele>776.805054</ele>
        <time>2015-11-03T16:57:49Z</time>
      </trkpt>
      <trkpt lat="45.89241" lon="2.87765">
        <ele>777.123352</ele>
        <time>2015-11-03T16:57:49Z</time>
      </trkpt>
      <trkpt lat="45.89243" lon="2.87772">
        <ele>777.723755</ele>
        <time>2015-11-03T16:57:49Z</time>
      </trkpt>
      <trkpt lat="45.89246" lon="2.87777">
        <ele>778.196228</ele>
        <time>2015-11-03T16:57:49Z</time>
      </trkpt>
      <trkpt lat="45.89248" lon="2.87782">
        <ele>778.602478</ele>
        <time>2015-11-03T16:57:49Z</time>
      </trkpt>
      <trkpt lat="45.89251" lon="2.87787">
        <ele>779.023743</ele>
        <time>2015-11-03T16:57:49Z</time>
      </trkpt>
      <trkpt lat="45.89252" lon="2.87792">
        <ele>779.453735</ele>
        <time>2015-11-03T16:57:49Z</time>
      </trkpt>
      <trkpt lat="45.89253" lon="2.87797">
        <ele>779.845032</ele>
        <time>2015-11-03T16:57:49Z</time>
      </trkpt>
      <trkpt lat="45.89252" lon="2.87802">
        <ele>780.217468</ele>
        <time>2015-11-03T16:57:49Z</time>
      </trkpt>
      <trkpt lat="45.89249" lon="2.87807">
        <ele>780.596252</ele>
        <time>2015-11-03T16:57:49Z</time>
      </trkpt>
      <trkpt lat="45.89248" lon="2.87813">
        <ele>781.005005</ele>
        <time>2015-11-03T16:57:49Z</time>
      </trkpt>
      <trkpt lat="45.89245" lon="2.87819">
        <ele>781.418762</ele>
        <time>2015-11-03T16:57:49Z</time>
      </trkpt>
      <trkpt lat="45.89243" lon="2.87824">
        <ele>781.763733</ele>
        <time>2015-11-03T16:57:49Z</time>
      </trkpt>
      <trkpt lat="45.89239" lon="2.87829">
        <ele>782.054993</ele>
        <time>2015-11-03T16:57:49Z</time>
      </trkpt>
      <trkpt lat="45.89237" lon="2.87833">
        <ele>782.311218</ele>
        <time>2015-11-03T16:57:49Z</time>
      </trkpt>
      <trkpt lat="45.89237" lon="2.87837">
        <ele>782.60498</ele>
        <time>2015-11-03T16:57:49Z</time>
      </trkpt>
      <trkpt lat="45.89239" lon="2.87842">
        <ele>783.058777</ele>
        <time>2015-11-03T16:57:49Z</time>
      </trkpt>
      <trkpt lat="45.89241" lon="2.87848">
        <ele>783.598755</ele>
        <time>2015-11-03T16:57:49Z</time>
      </trkpt>
      <trkpt lat="45.89241" lon="2.87855">
        <ele>784.098755</ele>
        <time>2015-11-03T16:57:49Z</time>
      </trkpt>
      <trkpt lat="45.8924" lon="2.87857">
        <ele>784.221252</ele>
        <time>2015-11-03T16:57:49Z</time>
      </trkpt>
      <trkpt lat="45.89236" lon="2.87861">
        <ele>784.503784</ele>
        <time>2015-11-03T16:57:49Z</time>
      </trkpt>
      <trkpt lat="45.89234" lon="2.87865">
        <ele>784.762512</ele>
        <time>2015-11-03T16:57:49Z</time>
      </trkpt>
      <trkpt lat="45.89235" lon="2.8787">
        <ele>785.128723</ele>
        <time>2015-11-03T16:57:49Z</time>
      </trkpt>
      <trkpt lat="45.89234" lon="2.87874">
        <ele>785.467529</ele>
        <time>2015-11-03T16:57:49Z</time>
      </trkpt>
      <trkpt lat="45.89233" lon="2.87878">
        <ele>785.73999</ele>
        <time>2015-11-03T16:57:49Z</time>
      </trkpt>
      <trkpt lat="45.89234" lon="2.87884">
        <ele>786.248779</ele>
        <time>2015-11-03T16:57:49Z</time>
      </trkpt>
      <trkpt lat="45.89231" lon="2.8789">
        <ele>786.627502</ele>
        <time>2015-11-03T16:57:49Z</time>
      </trkpt>
      <trkpt lat="45.89228" lon="2.87896">
        <ele>787.056274</ele>
        <time>2015-11-03T16:57:49Z</time>
      </trkpt>
      <trkpt lat="45.89225" lon="2.87902">
        <ele>787.880859</ele>
        <time>2015-11-03T16:57:49Z</time>
      </trkpt>
      <trkpt lat="45.89223" lon="2.87909">
        <ele>789.048279</ele>
        <time>2015-11-03T16:57:49Z</time>
      </trkpt>
      <trkpt lat="45.8922" lon="2.87913">
        <ele>789.554016</ele>
        <time>2015-11-03T16:57:49Z</time>
      </trkpt>
      <trkpt lat="45.89219" lon="2.87917">
        <ele>790.17395</ele>
        <time>2015-11-03T16:57:49Z</time>
      </trkpt>
      <trkpt lat="45.89218" lon="2.87921">
        <ele>790.866211</ele>
        <time>2015-11-03T16:57:49Z</time>
      </trkpt>
      <trkpt lat="45.89216" lon="2.87927">
        <ele>791.735352</ele>
        <time>2015-11-03T16:57:49Z</time>
      </trkpt>
      <trkpt lat="45.89215" lon="2.87931">
        <ele>792.295654</ele>
        <time>2015-11-03T16:57:49Z</time>
      </trkpt>
      <trkpt lat="45.89217" lon="2.87936">
        <ele>793.290283</ele>
        <time>2015-11-03T16:57:49Z</time>
      </trkpt>
      <trkpt lat="45.89218" lon="2.87942">
        <ele>794.283691</ele>
        <time>2015-11-03T16:57:49Z</time>
      </trkpt>
      <trkpt lat="45.89218" lon="2.87948">
        <ele>795.305908</ele>
        <time>2015-11-03T16:57:49Z</time>
      </trkpt>
      <trkpt lat="45.89218" lon="2.87952">
        <ele>796.041992</ele>
        <time>2015-11-03T16:57:49Z</time>
      </trkpt>
      <trkpt lat="45.89218" lon="2.87957">
        <ele>796.956909</ele>
        <time>2015-11-03T16:57:49Z</time>
      </trkpt>
      <trkpt lat="45.89219" lon="2.87959">
        <ele>797.377014</ele>
        <time>2015-11-03T16:57:49Z</time>
      </trkpt>
      <trkpt lat="45.8922" lon="2.87966">
        <ele>798.460632</ele>
        <time>2015-11-03T16:57:49Z</time>
      </trkpt>
      <trkpt lat="45.89221" lon="2.87972">
        <ele>799.31781</ele>
        <time>2015-11-03T16:57:49Z</time>
      </trkpt>
      <trkpt lat="45.89222" lon="2.87978">
        <ele>800.06488</ele>
        <time>2015-11-03T16:57:49Z</time>
      </trkpt>
      <trkpt lat="45.89223" lon="2.87986">
        <ele>801.092957</ele>
        <time>2015-11-03T16:57:49Z</time>
      </trkpt>
      <trkpt lat="45.89225" lon="2.87991">
        <ele>801.690491</ele>
        <time>2015-11-03T16:57:49Z</time>
      </trkpt>
      <trkpt lat="45.89229" lon="2.87998">
        <ele>802.652344</ele>
        <time>2015-11-03T16:57:49Z</time>
      </trkpt>
      <trkpt lat="45.89228" lon="2.88003">
        <ele>803.243591</ele>
        <time>2015-11-03T16:57:49Z</time>
      </trkpt>
      <trkpt lat="45.89229" lon="2.88006">
        <ele>803.659546</ele>
        <time>2015-11-03T16:57:49Z</time>
      </trkpt>
      <trkpt lat="45.89229" lon="2.8801">
        <ele>804.112549</ele>
        <time>2015-11-03T16:57:49Z</time>
      </trkpt>
      <trkpt lat="45.89229" lon="2.88017">
        <ele>804.961914</ele>
        <time>2015-11-03T16:57:49Z</time>
      </trkpt>
      <trkpt lat="45.89229" lon="2.88024">
        <ele>805.674316</ele>
        <time>2015-11-03T16:57:49Z</time>
      </trkpt>
      <trkpt lat="45.89228" lon="2.8803">
        <ele>806.145264</ele>
        <time>2015-11-03T16:57:49Z</time>
      </trkpt>
      <trkpt lat="45.89228" lon="2.88034">
        <ele>806.335449</ele>
        <time>2015-11-03T16:57:49Z</time>
      </trkpt>
      <trkpt lat="45.89229" lon="2.88042">
        <ele>806.682495</ele>
        <time>2015-11-03T16:57:49Z</time>
      </trkpt>
      <trkpt lat="45.8923" lon="2.8805">
        <ele>807.00592</ele>
        <time>2015-11-03T16:57:49Z</time>
      </trkpt>
      <trkpt lat="45.89232" lon="2.88056">
        <ele>807.274109</ele>
        <time>2015-11-03T16:57:49Z</time>
      </trkpt>
      <trkpt lat="45.89233" lon="2.88059">
        <ele>807.384644</ele>
        <time>2015-11-03T16:57:49Z</time>
      </trkpt>
      <trkpt lat="45.89233" lon="2.88066">
        <ele>807.655457</ele>
        <time>2015-11-03T16:57:49Z</time>
      </trkpt>
      <trkpt lat="45.89233" lon="2.88073">
        <ele>807.9552</ele>
        <time>2015-11-03T16:57:49Z</time>
      </trkpt>
      <trkpt lat="45.89233" lon="2.88081">
        <ele>808.289917</ele>
        <time>2015-11-03T16:57:49Z</time>
      </trkpt>
      <trkpt lat="45.89235" lon="2.88086">
        <ele>808.437256</ele>
        <time>2015-11-03T16:57:49Z</time>
      </trkpt>
      <trkpt lat="45.89239" lon="2.8809">
        <ele>808.544678</ele>
        <time>2015-11-03T16:57:49Z</time>
      </trkpt>
      <trkpt lat="45.89243" lon="2.88092">
        <ele>808.595215</ele>
        <time>2015-11-03T16:57:49Z</time>
      </trkpt>
      <trkpt lat="45.89248" lon="2.88095">
        <ele>808.68573</ele>
        <time>2015-11-03T16:57:49Z</time>
      </trkpt>
      <trkpt lat="45.89253" lon="2.88096">
        <ele>808.710999</ele>
        <time>2015-11-03T16:57:49Z</time>
      </trkpt>
      <trkpt lat="45.89258" lon="2.88098">
        <ele>808.77771</ele>
        <time>2015-11-03T16:57:49Z</time>
      </trkpt>
      <trkpt lat="45.89263" lon="2.88102">
        <ele>809.016113</ele>
        <time>2015-11-03T16:57:49Z</time>
      </trkpt>
      <trkpt lat="45.89266" lon="2.88106">
        <ele>809.318359</ele>
        <time>2015-11-03T16:57:49Z</time>
      </trkpt>
      <trkpt lat="45.8927" lon="2.8811">
        <ele>809.66272</ele>
        <time>2015-11-03T16:57:49Z</time>
      </trkpt>
      <trkpt lat="45.89272" lon="2.88115">
        <ele>810.156067</ele>
        <time>2015-11-03T16:57:49Z</time>
      </trkpt>
      <trkpt lat="45.8927" lon="2.88121">
        <ele>810.742615</ele>
        <time>2015-11-03T16:57:49Z</time>
      </trkpt>
      <trkpt lat="45.89269" lon="2.88127">
        <ele>811.372009</ele>
        <time>2015-11-03T16:57:49Z</time>
      </trkpt>
      <trkpt lat="45.89269" lon="2.88133">
        <ele>811.948608</ele>
        <time>2015-11-03T16:57:49Z</time>
      </trkpt>
      <trkpt lat="45.89272" lon="2.88139">
        <ele>812.559265</ele>
        <time>2015-11-03T16:57:49Z</time>
      </trkpt>
      <trkpt lat="45.89268" lon="2.88145">
        <ele>813.060242</ele>
        <time>2015-11-03T16:57:49Z</time>
      </trkpt>
      <trkpt lat="45.89268" lon="2.88152">
        <ele>813.743164</ele>
        <time>2015-11-03T16:57:49Z</time>
      </trkpt>
      <trkpt lat="45.89269" lon="2.8816">
        <ele>814.814392</ele>
        <time>2015-11-03T16:57:49Z</time>
      </trkpt>
      <trkpt lat="45.89269" lon="2.88167">
        <ele>815.999329</ele>
        <time>2015-11-03T16:57:49Z</time>
      </trkpt>
      <trkpt lat="45.8927" lon="2.88173">
        <ele>817.16394</ele>
        <time>2015-11-03T16:57:49Z</time>
      </trkpt>
      <trkpt lat="45.89271" lon="2.88179">
        <ele>818.273071</ele>
        <time>2015-11-03T16:57:49Z</time>
      </trkpt>
      <trkpt lat="45.8927" lon="2.88186">
        <ele>819.378418</ele>
        <time>2015-11-03T16:57:49Z</time>
      </trkpt>
      <trkpt lat="45.89266" lon="2.88182">
        <ele>818.521484</ele>
        <time>2015-11-03T16:57:49Z</time>
      </trkpt>
      <trkpt lat="45.89264" lon="2.88185">
        <ele>819.044495</ele>
        <time>2015-11-03T16:57:49Z</time>
      </trkpt>
      <trkpt lat="45.89261" lon="2.88192">
        <ele>820.122925</ele>
        <time>2015-11-03T16:57:49Z</time>
      </trkpt>
      <trkpt lat="45.8926" lon="2.88198">
        <ele>821.022949</ele>
        <time>2015-11-03T16:57:49Z</time>
      </trkpt>
      <trkpt lat="45.89256" lon="2.88202">
        <ele>821.566162</ele>
        <time>2015-11-03T16:57:49Z</time>
      </trkpt>
      <trkpt lat="45.8925" lon="2.88208">
        <ele>822.299377</ele>
        <time>2015-11-03T16:57:49Z</time>
      </trkpt>
      <trkpt lat="45.89249" lon="2.88211">
        <ele>822.773071</ele>
        <time>2015-11-03T16:57:49Z</time>
      </trkpt>
      <trkpt lat="45.89246" lon="2.88215">
        <ele>823.283508</ele>
        <time>2015-11-03T16:57:49Z</time>
      </trkpt>
      <trkpt lat="45.89242" lon="2.8822">
        <ele>824.116333</ele>
        <time>2015-11-03T16:57:49Z</time>
      </trkpt>
      <trkpt lat="45.89238" lon="2.88222">
        <ele>824.461121</ele>
        <time>2015-11-03T16:57:49Z</time>
      </trkpt>
      <trkpt lat="45.89236" lon="2.88228">
        <ele>825.88562</ele>
        <time>2015-11-03T16:57:49Z</time>
      </trkpt>
      <trkpt lat="45.89231" lon="2.88231">
        <ele>826.287109</ele>
        <time>2015-11-03T16:57:49Z</time>
      </trkpt>
      <trkpt lat="45.89227" lon="2.88234">
        <ele>826.820557</ele>
        <time>2015-11-03T16:57:49Z</time>
      </trkpt>
      <trkpt lat="45.89223" lon="2.88239">
        <ele>827.901306</ele>
        <time>2015-11-03T16:57:49Z</time>
      </trkpt>
      <trkpt lat="45.8922" lon="2.88244">
        <ele>828.98114</ele>
        <time>2015-11-03T16:57:49Z</time>
      </trkpt>
      <trkpt lat="45.89214" lon="2.88249">
        <ele>829.842529</ele>
        <time>2015-11-03T16:57:49Z</time>
      </trkpt>
      <trkpt lat="45.8921" lon="2.88249">
        <ele>829.606262</ele>
        <time>2015-11-03T16:57:49Z</time>
      </trkpt>
      <trkpt lat="45.89207" lon="2.88251">
        <ele>829.927795</ele>
        <time>2015-11-03T16:57:49Z</time>
      </trkpt>
      <trkpt lat="45.89204" lon="2.88258">
        <ele>831.114868</ele>
        <time>2015-11-03T16:57:49Z</time>
      </trkpt>
      <trkpt lat="45.892" lon="2.88263">
        <ele>831.926758</ele>
        <time>2015-11-03T16:57:49Z</time>
      </trkpt>
      <trkpt lat="45.89194" lon="2.88264">
        <ele>831.646973</ele>
        <time>2015-11-03T16:57:49Z</time>
      </trkpt>
      <trkpt lat="45.89192" lon="2.88265">
        <ele>831.464783</ele>
        <time>2015-11-03T16:57:49Z</time>
      </trkpt>
      <trkpt lat="45.89187" lon="2.88266">
        <ele>831.277588</ele>
        <time>2015-11-03T16:57:49Z</time>
      </trkpt>
      <trkpt lat="45.89182" lon="2.88268">
        <ele>831.194275</ele>
        <time>2015-11-03T16:57:49Z</time>
      </trkpt>
      <trkpt lat="45.89179" lon="2.88268">
        <ele>830.715576</ele>
        <time>2015-11-03T16:57:49Z</time>
      </trkpt>
      <trkpt lat="45.89173" lon="2.88268">
        <ele>830.332825</ele>
        <time>2015-11-03T16:57:49Z</time>
      </trkpt>
      <trkpt lat="45.89169" lon="2.88269">
        <ele>830.346802</ele>
        <time>2015-11-03T16:57:49Z</time>
      </trkpt>
      <trkpt lat="45.89166" lon="2.88272">
        <ele>830.636658</ele>
        <time>2015-11-03T16:57:49Z</time>
      </trkpt>
      <trkpt lat="45.89162" lon="2.8828">
        <ele>831.659729</ele>
        <time>2015-11-03T16:57:49Z</time>
      </trkpt>
      <trkpt lat="45.8916" lon="2.88287">
        <ele>832.484253</ele>
        <time>2015-11-03T16:57:49Z</time>
      </trkpt>
      <trkpt lat="45.89159" lon="2.88293">
        <ele>833.186401</ele>
        <time>2015-11-03T16:57:49Z</time>
      </trkpt>
      <trkpt lat="45.89158" lon="2.88299">
        <ele>833.900513</ele>
        <time>2015-11-03T16:57:49Z</time>
      </trkpt>
      <trkpt lat="45.89162" lon="2.883">
        <ele>834.368469</ele>
        <time>2015-11-03T16:57:49Z</time>
      </trkpt>
      <trkpt lat="45.89164" lon="2.883">
        <ele>834.526611</ele>
        <time>2015-11-03T16:57:49Z</time>
      </trkpt>
      <trkpt lat="45.89166" lon="2.88299">
        <ele>834.557556</ele>
        <time>2015-11-03T16:57:49Z</time>
      </trkpt>
      <trkpt lat="45.8917" lon="2.88297">
        <ele>834.632385</ele>
        <time>2015-11-03T16:57:49Z</time>
      </trkpt>
      <trkpt lat="45.89173" lon="2.88297">
        <ele>834.809753</ele>
        <time>2015-11-03T16:57:49Z</time>
      </trkpt>
      <trkpt lat="45.89175" lon="2.88299">
        <ele>835.232056</ele>
        <time>2015-11-03T16:57:49Z</time>
      </trkpt>
      <trkpt lat="45.89179" lon="2.88298">
        <ele>835.481384</ele>
        <time>2015-11-03T16:57:49Z</time>
      </trkpt>
      <trkpt lat="45.89183" lon="2.88297">
        <ele>835.921997</ele>
        <time>2015-11-03T16:57:49Z</time>
      </trkpt>
      <trkpt lat="45.89188" lon="2.88297">
        <ele>836.494202</ele>
        <time>2015-11-03T16:57:49Z</time>
      </trkpt>
      <trkpt lat="45.89192" lon="2.88301">
        <ele>837.470276</ele>
        <time>2015-11-03T16:57:49Z</time>
      </trkpt>
      <trkpt lat="45.89196" lon="2.88305">
        <ele>838.283447</ele>
        <time>2015-11-03T16:57:49Z</time>
      </trkpt>
      <trkpt lat="45.89202" lon="2.88304">
        <ele>838.900635</ele>
        <time>2015-11-03T16:57:49Z</time>
      </trkpt>
      <trkpt lat="45.89206" lon="2.88306">
        <ele>839.520142</ele>
        <time>2015-11-03T16:57:49Z</time>
      </trkpt>
      <trkpt lat="45.8921" lon="2.88307">
        <ele>840.134888</ele>
        <time>2015-11-03T16:57:49Z</time>
      </trkpt>
      <trkpt lat="45.89213" lon="2.88308">
        <ele>840.575867</ele>
        <time>2015-11-03T16:57:49Z</time>
      </trkpt>
      <trkpt lat="45.89215" lon="2.88311">
        <ele>841.132751</ele>
        <time>2015-11-03T16:57:49Z</time>
      </trkpt>
      <trkpt lat="45.89219" lon="2.88314">
        <ele>841.774475</ele>
        <time>2015-11-03T16:57:49Z</time>
      </trkpt>
      <trkpt lat="45.89224" lon="2.88315">
        <ele>842.193542</ele>
        <time>2015-11-03T16:57:49Z</time>
      </trkpt>
      <trkpt lat="45.89229" lon="2.88313">
        <ele>842.40979</ele>
        <time>2015-11-03T16:57:49Z</time>
      </trkpt>
      <trkpt lat="45.89233" lon="2.88317">
        <ele>842.941956</ele>
        <time>2015-11-03T16:57:49Z</time>
      </trkpt>
      <trkpt lat="45.89239" lon="2.88318">
        <ele>843.401184</ele>
        <time>2015-11-03T16:57:49Z</time>
      </trkpt>
      <trkpt lat="45.89243" lon="2.88319">
        <ele>843.793762</ele>
        <time>2015-11-03T16:57:49Z</time>
      </trkpt>
      <trkpt lat="45.89246" lon="2.88319">
        <ele>844.039124</ele>
        <time>2015-11-03T16:57:49Z</time>
      </trkpt>
      <trkpt lat="45.89251" lon="2.88322">
        <ele>844.516296</ele>
        <time>2015-11-03T16:57:49Z</time>
      </trkpt>
      <trkpt lat="45.89256" lon="2.8832">
        <ele>844.744995</ele>
        <time>2015-11-03T16:57:49Z</time>
      </trkpt>
      <trkpt lat="45.89259" lon="2.88318">
        <ele>844.738586</ele>
        <time>2015-11-03T16:57:49Z</time>
      </trkpt>
      <trkpt lat="45.89265" lon="2.88317">
        <ele>844.98999</ele>
        <time>2015-11-03T16:57:49Z</time>
      </trkpt>
      <trkpt lat="45.8927" lon="2.88316">
        <ele>844.856262</ele>
        <time>2015-11-03T16:57:49Z</time>
      </trkpt>
      <trkpt lat="45.89274" lon="2.88316">
        <ele>844.763123</ele>
        <time>2015-11-03T16:57:49Z</time>
      </trkpt>
      <trkpt lat="45.89278" lon="2.8832">
        <ele>844.860291</ele>
        <time>2015-11-03T16:57:49Z</time>
      </trkpt>
      <trkpt lat="45.8928" lon="2.88325">
        <ele>845.041809</ele>
        <time>2015-11-03T16:57:49Z</time>
      </trkpt>
      <trkpt lat="45.89285" lon="2.88328">
        <ele>845.05304</ele>
        <time>2015-11-03T16:57:49Z</time>
      </trkpt>
      <trkpt lat="45.89294" lon="2.8833">
        <ele>844.859253</ele>
        <time>2015-11-03T16:57:49Z</time>
      </trkpt>
      <trkpt lat="45.89293" lon="2.88332">
        <ele>844.995789</ele>
        <time>2015-11-03T16:57:49Z</time>
      </trkpt>
      <trkpt lat="45.89293" lon="2.88338">
        <ele>845.242554</ele>
        <time>2015-11-03T16:57:49Z</time>
      </trkpt>
      <trkpt lat="45.89292" lon="2.88345">
        <ele>845.565308</ele>
        <time>2015-11-03T16:57:49Z</time>
      </trkpt>
      <trkpt lat="45.89292" lon="2.88353">
        <ele>845.706238</ele>
        <time>2015-11-03T16:57:49Z</time>
      </trkpt>
      <trkpt lat="45.89292" lon="2.8836">
        <ele>845.567505</ele>
        <time>2015-11-03T16:57:49Z</time>
      </trkpt>
      <trkpt lat="45.89295" lon="2.88365">
        <ele>845.362488</ele>
        <time>2015-11-03T16:57:49Z</time>
      </trkpt>
      <trkpt lat="45.89294" lon="2.88374">
        <ele>845.276245</ele>
        <time>2015-11-03T16:57:49Z</time>
      </trkpt>
      <trkpt lat="45.89298" lon="2.88381">
        <ele>844.993774</ele>
        <time>2015-11-03T16:57:49Z</time>
      </trkpt>
      <trkpt lat="45.89298" lon="2.88389">
        <ele>844.868774</ele>
        <time>2015-11-03T16:57:49Z</time>
      </trkpt>
      <trkpt lat="45.89299" lon="2.88398">
        <ele>844.683777</ele>
        <time>2015-11-03T16:57:49Z</time>
      </trkpt>
      <trkpt lat="45.89303" lon="2.88404">
        <ele>844.38623</ele>
        <time>2015-11-03T16:57:49Z</time>
      </trkpt>
      <trkpt lat="45.89304" lon="2.88412">
        <ele>844.216248</ele>
        <time>2015-11-03T16:57:49Z</time>
      </trkpt>
      <trkpt lat="45.89299" lon="2.88416">
        <ele>844.413696</ele>
        <time>2015-11-03T16:57:49Z</time>
      </trkpt>
      <trkpt lat="45.89293" lon="2.8842">
        <ele>844.665466</ele>
        <time>2015-11-03T16:57:49Z</time>
      </trkpt>
      <trkpt lat="45.89288" lon="2.88425">
        <ele>844.840088</ele>
        <time>2015-11-03T16:57:49Z</time>
      </trkpt>
      <trkpt lat="45.89283" lon="2.88429">
        <ele>844.995117</ele>
        <time>2015-11-03T16:57:49Z</time>
      </trkpt>
      <trkpt lat="45.89277" lon="2.88433">
        <ele>845.182983</ele>
        <time>2015-11-03T16:57:49Z</time>
      </trkpt>
      <trkpt lat="45.89272" lon="2.88438">
        <ele>845.329407</ele>
        <time>2015-11-03T16:57:49Z</time>
      </trkpt>
      <trkpt lat="45.89265" lon="2.88443">
        <ele>845.477234</ele>
        <time>2015-11-03T16:57:49Z</time>
      </trkpt>
      <trkpt lat="45.89258" lon="2.88449">
        <ele>845.508301</ele>
        <time>2015-11-03T16:57:49Z</time>
      </trkpt>
      <trkpt lat="45.89253" lon="2.88453">
        <ele>845.526917</ele>
        <time>2015-11-03T16:57:49Z</time>
      </trkpt>
      <trkpt lat="45.89248" lon="2.88457">
        <ele>845.547913</ele>
        <time>2015-11-03T16:57:49Z</time>
      </trkpt>
      <trkpt lat="45.89243" lon="2.8846">
        <ele>845.588379</ele>
        <time>2015-11-03T16:57:49Z</time>
      </trkpt>
      <trkpt lat="45.89238" lon="2.88463">
        <ele>845.65625</ele>
        <time>2015-11-03T16:57:49Z</time>
      </trkpt>
      <trkpt lat="45.89234" lon="2.88464">
        <ele>845.719971</ele>
        <time>2015-11-03T16:57:49Z</time>
      </trkpt>
      <trkpt lat="45.89228" lon="2.88467">
        <ele>845.815491</ele>
        <time>2015-11-03T16:57:49Z</time>
      </trkpt>
      <trkpt lat="45.89222" lon="2.8847">
        <ele>845.924805</ele>
        <time>2015-11-03T16:57:49Z</time>
      </trkpt>
      <trkpt lat="45.89216" lon="2.88471">
        <ele>845.992676</ele>
        <time>2015-11-03T16:57:49Z</time>
      </trkpt>
      <trkpt lat="45.89213" lon="2.88471">
        <ele>845.974365</ele>
        <time>2015-11-03T16:57:49Z</time>
      </trkpt>
      <trkpt lat="45.89209" lon="2.88471">
        <ele>845.959717</ele>
        <time>2015-11-03T16:57:49Z</time>
      </trkpt>
      <trkpt lat="45.89203" lon="2.88472">
        <ele>845.943054</ele>
        <time>2015-11-03T16:57:49Z</time>
      </trkpt>
      <trkpt lat="45.89197" lon="2.88473">
        <ele>845.941895</ele>
        <time>2015-11-03T16:57:49Z</time>
      </trkpt>
      <trkpt lat="45.89192" lon="2.88475">
        <ele>845.968079</ele>
        <time>2015-11-03T16:57:49Z</time>
      </trkpt>
      <trkpt lat="45.89188" lon="2.88477">
        <ele>845.993347</ele>
        <time>2015-11-03T16:57:49Z</time>
      </trkpt>
      <trkpt lat="45.89186" lon="2.88483">
        <ele>846.240967</ele>
        <time>2015-11-03T16:57:49Z</time>
      </trkpt>
      <trkpt lat="45.89185" lon="2.88492">
        <ele>846.566467</ele>
        <time>2015-11-03T16:57:49Z</time>
      </trkpt>
      <trkpt lat="45.89183" lon="2.885">
        <ele>846.911194</ele>
        <time>2015-11-03T16:57:49Z</time>
      </trkpt>
      <trkpt lat="45.89183" lon="2.88508">
        <ele>847.256104</ele>
        <time>2015-11-03T16:57:49Z</time>
      </trkpt>
      <trkpt lat="45.89182" lon="2.88516">
        <ele>847.572998</ele>
        <time>2015-11-03T16:57:49Z</time>
      </trkpt>
      <trkpt lat="45.89181" lon="2.88524">
        <ele>847.955078</ele>
        <time>2015-11-03T16:57:49Z</time>
      </trkpt>
      <trkpt lat="45.89181" lon="2.88532">
        <ele>848.237366</ele>
        <time>2015-11-03T16:57:49Z</time>
      </trkpt>
      <trkpt lat="45.89181" lon="2.88539">
        <ele>848.560242</ele>
        <time>2015-11-03T16:57:49Z</time>
      </trkpt>
      <trkpt lat="45.89181" lon="2.88546">
        <ele>848.852478</ele>
        <time>2015-11-03T16:57:49Z</time>
      </trkpt>
      <trkpt lat="45.89182" lon="2.88554">
        <ele>849.159973</ele>
        <time>2015-11-03T16:57:49Z</time>
      </trkpt>
      <trkpt lat="45.89183" lon="2.88563">
        <ele>849.54248</ele>
        <time>2015-11-03T16:57:49Z</time>
      </trkpt>
      <trkpt lat="45.89184" lon="2.8857">
        <ele>849.873779</ele>
        <time>2015-11-03T16:57:49Z</time>
      </trkpt>
      <trkpt lat="45.89185" lon="2.88577">
        <ele>850.10498</ele>
        <time>2015-11-03T16:57:49Z</time>
      </trkpt>
      <trkpt lat="45.8919" lon="2.88584">
        <ele>850.178772</ele>
        <time>2015-11-03T16:57:49Z</time>
      </trkpt>
      <trkpt lat="45.89193" lon="2.88591">
        <ele>850.387512</ele>
        <time>2015-11-03T16:57:49Z</time>
      </trkpt>
      <trkpt lat="45.89196" lon="2.88597">
        <ele>850.563721</ele>
        <time>2015-11-03T16:57:49Z</time>
      </trkpt>
      <trkpt lat="45.89198" lon="2.88603">
        <ele>850.743774</ele>
        <time>2015-11-03T16:57:49Z</time>
      </trkpt>
      <trkpt lat="45.89199" lon="2.88611">
        <ele>850.957153</ele>
        <time>2015-11-03T16:57:49Z</time>
      </trkpt>
      <trkpt lat="45.89201" lon="2.88618">
        <ele>850.984863</ele>
        <time>2015-11-03T16:57:49Z</time>
      </trkpt>
      <trkpt lat="45.89202" lon="2.88625">
        <ele>851.055481</ele>
        <time>2015-11-03T16:57:49Z</time>
      </trkpt>
      <trkpt lat="45.89201" lon="2.88632">
        <ele>851.282837</ele>
        <time>2015-11-03T16:57:49Z</time>
      </trkpt>
      <trkpt lat="45.89202" lon="2.88641">
        <ele>851.39856</ele>
        <time>2015-11-03T16:57:49Z</time>
      </trkpt>
      <trkpt lat="45.89203" lon="2.88648">
        <ele>851.526184</ele>
        <time>2015-11-03T16:57:49Z</time>
      </trkpt>
      <trkpt lat="45.89206" lon="2.88653">
        <ele>851.389526</ele>
        <time>2015-11-03T16:57:49Z</time>
      </trkpt>
      <trkpt lat="45.89211" lon="2.88658">
        <ele>851.179443</ele>
        <time>2015-11-03T16:57:49Z</time>
      </trkpt>
      <trkpt lat="45.89217" lon="2.88661">
        <ele>850.884827</ele>
        <time>2015-11-03T16:57:49Z</time>
      </trkpt>
      <trkpt lat="45.89223" lon="2.8866">
        <ele>850.945007</ele>
        <time>2015-11-03T16:57:49Z</time>
      </trkpt>
      <trkpt lat="45.89225" lon="2.8866">
        <ele>850.978394</ele>
        <time>2015-11-03T16:57:49Z</time>
      </trkpt>
      <trkpt lat="45.89232" lon="2.88659">
        <ele>851.070862</ele>
        <time>2015-11-03T16:57:49Z</time>
      </trkpt>
      <trkpt lat="45.89236" lon="2.88659">
        <ele>851.160828</ele>
        <time>2015-11-03T16:57:49Z</time>
      </trkpt>
      <trkpt lat="45.89241" lon="2.8866">
        <ele>851.26416</ele>
        <time>2015-11-03T16:57:49Z</time>
      </trkpt>
      <trkpt lat="45.89248" lon="2.8866">
        <ele>851.381897</ele>
        <time>2015-11-03T16:57:49Z</time>
      </trkpt>
      <trkpt lat="45.89252" lon="2.88662">
        <ele>851.517883</ele>
        <time>2015-11-03T16:57:49Z</time>
      </trkpt>
      <trkpt lat="45.89261" lon="2.88664">
        <ele>851.739014</ele>
        <time>2015-11-03T16:57:49Z</time>
      </trkpt>
      <trkpt lat="45.89267" lon="2.88664">
        <ele>851.861145</ele>
        <time>2015-11-03T16:57:49Z</time>
      </trkpt>
      <trkpt lat="45.89272" lon="2.88664">
        <ele>851.982422</ele>
        <time>2015-11-03T16:57:49Z</time>
      </trkpt>
      <trkpt lat="45.89279" lon="2.88666">
        <ele>852.18042</ele>
        <time>2015-11-03T16:57:49Z</time>
      </trkpt>
      <trkpt lat="45.89283" lon="2.88669">
        <ele>852.389709</ele>
        <time>2015-11-03T16:57:50Z</time>
      </trkpt>
      <trkpt lat="45.8929" lon="2.88672">
        <ele>852.594971</ele>
        <time>2015-11-03T16:57:50Z</time>
      </trkpt>
      <trkpt lat="45.89296" lon="2.88674">
        <ele>852.664978</ele>
        <time>2015-11-03T16:57:50Z</time>
      </trkpt>
      <trkpt lat="45.89303" lon="2.88676">
        <ele>852.73999</ele>
        <time>2015-11-03T16:57:50Z</time>
      </trkpt>
      <trkpt lat="45.89309" lon="2.88679">
        <ele>852.755005</ele>
        <time>2015-11-03T16:57:50Z</time>
      </trkpt>
      <trkpt lat="45.89312" lon="2.88682">
        <ele>852.66748</ele>
        <time>2015-11-03T16:57:50Z</time>
      </trkpt>
      <trkpt lat="45.89318" lon="2.88685">
        <ele>852.58252</ele>
        <time>2015-11-03T16:57:50Z</time>
      </trkpt>
      <trkpt lat="45.89325" lon="2.88687">
        <ele>852.530029</ele>
        <time>2015-11-03T16:57:50Z</time>
      </trkpt>
      <trkpt lat="45.89331" lon="2.8869">
        <ele>852.445007</ele>
        <time>2015-11-03T16:57:50Z</time>
      </trkpt>
      <trkpt lat="45.89335" lon="2.88694">
        <ele>852.30249</ele>
        <time>2015-11-03T16:57:50Z</time>
      </trkpt>
      <trkpt lat="45.89339" lon="2.88698">
        <ele>852.184998</ele>
        <time>2015-11-03T16:57:50Z</time>
      </trkpt>
      <trkpt lat="45.89344" lon="2.88702">
        <ele>852.070007</ele>
        <time>2015-11-03T16:57:50Z</time>
      </trkpt>
      <trkpt lat="45.89349" lon="2.88705">
        <ele>851.972473</ele>
        <time>2015-11-03T16:57:50Z</time>
      </trkpt>
      <trkpt lat="45.89355" lon="2.88709">
        <ele>851.932373</ele>
        <time>2015-11-03T16:57:50Z</time>
      </trkpt>
      <trkpt lat="45.8936" lon="2.88712">
        <ele>852.039978</ele>
        <time>2015-11-03T16:57:50Z</time>
      </trkpt>
      <trkpt lat="45.89364" lon="2.88713">
        <ele>852.157837</ele>
        <time>2015-11-03T16:57:50Z</time>
      </trkpt>
      <trkpt lat="45.89369" lon="2.88715">
        <ele>852.281982</ele>
        <time>2015-11-03T16:57:50Z</time>
      </trkpt>
      <trkpt lat="45.89374" lon="2.88717">
        <ele>852.437744</ele>
        <time>2015-11-03T16:57:50Z</time>
      </trkpt>
      <trkpt lat="45.8938" lon="2.88719">
        <ele>852.607422</ele>
        <time>2015-11-03T16:57:50Z</time>
      </trkpt>
      <trkpt lat="45.89385" lon="2.88722">
        <ele>852.748901</ele>
        <time>2015-11-03T16:57:50Z</time>
      </trkpt>
      <trkpt lat="45.89391" lon="2.88724">
        <ele>852.958923</ele>
        <time>2015-11-03T16:57:50Z</time>
      </trkpt>
      <trkpt lat="45.89396" lon="2.88726">
        <ele>853.143799</ele>
        <time>2015-11-03T16:57:50Z</time>
      </trkpt>
      <trkpt lat="45.89401" lon="2.88728">
        <ele>853.529297</ele>
        <time>2015-11-03T16:57:50Z</time>
      </trkpt>
      <trkpt lat="45.89405" lon="2.88729">
        <ele>853.953491</ele>
        <time>2015-11-03T16:57:50Z</time>
      </trkpt>
      <trkpt lat="45.89409" lon="2.88732">
        <ele>854.341675</ele>
        <time>2015-11-03T16:57:50Z</time>
      </trkpt>
      <trkpt lat="45.89413" lon="2.88732">
        <ele>854.818115</ele>
        <time>2015-11-03T16:57:50Z</time>
      </trkpt>
      <trkpt lat="45.89419" lon="2.88739">
        <ele>855.328552</ele>
        <time>2015-11-03T16:57:50Z</time>
      </trkpt>
      <trkpt lat="45.89425" lon="2.88742">
        <ele>855.827209</ele>
        <time>2015-11-03T16:57:50Z</time>
      </trkpt>
      <trkpt lat="45.8943" lon="2.88742">
        <ele>856.400269</ele>
        <time>2015-11-03T16:57:50Z</time>
      </trkpt>
      <trkpt lat="45.89433" lon="2.88739">
        <ele>856.970642</ele>
        <time>2015-11-03T16:57:50Z</time>
      </trkpt>
      <trkpt lat="45.89437" lon="2.88737">
        <ele>857.468689</ele>
        <time>2015-11-03T16:57:50Z</time>
      </trkpt>
      <trkpt lat="45.89442" lon="2.88737">
        <ele>857.98999</ele>
        <time>2015-11-03T16:57:50Z</time>
      </trkpt>
      <trkpt lat="45.89447" lon="2.88737">
        <ele>858.417236</ele>
        <time>2015-11-03T16:57:50Z</time>
      </trkpt>
      <trkpt lat="45.89451" lon="2.88737">
        <ele>858.797729</ele>
        <time>2015-11-03T16:57:50Z</time>
      </trkpt>
      <trkpt lat="45.89456" lon="2.88737">
        <ele>859.193909</ele>
        <time>2015-11-03T16:57:50Z</time>
      </trkpt>
      <trkpt lat="45.89459" lon="2.88736">
        <ele>859.48114</ele>
        <time>2015-11-03T16:57:50Z</time>
      </trkpt>
      <trkpt lat="45.89463" lon="2.88736">
        <ele>859.811523</ele>
        <time>2015-11-03T16:57:50Z</time>
      </trkpt>
      <trkpt lat="45.89469" lon="2.88734">
        <ele>860.204529</ele>
        <time>2015-11-03T16:57:50Z</time>
      </trkpt>
      <trkpt lat="45.89472" lon="2.88736">
        <ele>860.603699</ele>
        <time>2015-11-03T16:57:50Z</time>
      </trkpt>
      <trkpt lat="45.89475" lon="2.88739">
        <ele>860.917847</ele>
        <time>2015-11-03T16:57:50Z</time>
      </trkpt>
      <trkpt lat="45.89477" lon="2.88743">
        <ele>861.000488</ele>
        <time>2015-11-03T16:57:50Z</time>
      </trkpt>
      <trkpt lat="45.89479" lon="2.88749">
        <ele>861.074951</ele>
        <time>2015-11-03T16:57:50Z</time>
      </trkpt>
      <trkpt lat="45.89481" lon="2.88755">
        <ele>861.206116</ele>
        <time>2015-11-03T16:57:50Z</time>
      </trkpt>
      <trkpt lat="45.89485" lon="2.88759">
        <ele>861.521057</ele>
        <time>2015-11-03T16:57:50Z</time>
      </trkpt>
      <trkpt lat="45.8949" lon="2.88762">
        <ele>861.797363</ele>
        <time>2015-11-03T16:57:50Z</time>
      </trkpt>
      <trkpt lat="45.89495" lon="2.88766">
        <ele>861.992126</ele>
        <time>2015-11-03T16:57:50Z</time>
      </trkpt>
      <trkpt lat="45.89499" lon="2.88768">
        <ele>862.219788</ele>
        <time>2015-11-03T16:57:50Z</time>
      </trkpt>
      <trkpt lat="45.89505" lon="2.88773">
        <ele>862.476746</ele>
        <time>2015-11-03T16:57:50Z</time>
      </trkpt>
      <trkpt lat="45.89509" lon="2.88776">
        <ele>862.705627</ele>
        <time>2015-11-03T16:57:50Z</time>
      </trkpt>
      <trkpt lat="45.89513" lon="2.8878">
        <ele>862.887024</ele>
        <time>2015-11-03T16:57:50Z</time>
      </trkpt>
      <trkpt lat="45.89516" lon="2.88783">
        <ele>863.042358</ele>
        <time>2015-11-03T16:57:50Z</time>
      </trkpt>
      <trkpt lat="45.89519" lon="2.88788">
        <ele>863.223694</ele>
        <time>2015-11-03T16:57:50Z</time>
      </trkpt>
      <trkpt lat="45.89524" lon="2.88792">
        <ele>863.518494</ele>
        <time>2015-11-03T16:57:50Z</time>
      </trkpt>
      <trkpt lat="45.89528" lon="2.88796">
        <ele>863.767578</ele>
        <time>2015-11-03T16:57:50Z</time>
      </trkpt>
      <trkpt lat="45.89532" lon="2.888">
        <ele>864.059998</ele>
        <time>2015-11-03T16:57:50Z</time>
      </trkpt>
      <trkpt lat="45.89537" lon="2.88803">
        <ele>864.331909</ele>
        <time>2015-11-03T16:57:50Z</time>
      </trkpt>
      <trkpt lat="45.89543" lon="2.88804">
        <ele>864.647888</ele>
        <time>2015-11-03T16:57:50Z</time>
      </trkpt>
      <trkpt lat="45.89549" lon="2.88807">
        <ele>864.729614</ele>
        <time>2015-11-03T16:57:50Z</time>
      </trkpt>
      <trkpt lat="45.89555" lon="2.88809">
        <ele>865.038086</ele>
        <time>2015-11-03T16:57:50Z</time>
      </trkpt>
      <trkpt lat="45.8956" lon="2.88806">
        <ele>865.621704</ele>
        <time>2015-11-03T16:57:50Z</time>
      </trkpt>
      <trkpt lat="45.89567" lon="2.88803">
        <ele>866.361755</ele>
        <time>2015-11-03T16:57:50Z</time>
      </trkpt>
      <trkpt lat="45.89572" lon="2.888">
        <ele>866.669983</ele>
        <time>2015-11-03T16:57:50Z</time>
      </trkpt>
      <trkpt lat="45.89576" lon="2.88797">
        <ele>866.969971</ele>
        <time>2015-11-03T16:57:50Z</time>
      </trkpt>
      <trkpt lat="45.8958" lon="2.88794">
        <ele>867.023987</ele>
        <time>2015-11-03T16:57:50Z</time>
      </trkpt>
      <trkpt lat="45.89585" lon="2.88794">
        <ele>867.050842</ele>
        <time>2015-11-03T16:57:50Z</time>
      </trkpt>
      <trkpt lat="45.89593" lon="2.88793">
        <ele>867.114319</ele>
        <time>2015-11-03T16:57:50Z</time>
      </trkpt>
      <trkpt lat="45.89598" lon="2.88791">
        <ele>867.186462</ele>
        <time>2015-11-03T16:57:50Z</time>
      </trkpt>
      <trkpt lat="45.896" lon="2.88785">
        <ele>867.304504</ele>
        <time>2015-11-03T16:57:50Z</time>
      </trkpt>
      <trkpt lat="45.89603" lon="2.88779">
        <ele>867.437012</ele>
        <time>2015-11-03T16:57:50Z</time>
      </trkpt>
      <trkpt lat="45.89606" lon="2.8877">
        <ele>867.656006</ele>
        <time>2015-11-03T16:57:50Z</time>
      </trkpt>
      <trkpt lat="45.89608" lon="2.88762">
        <ele>867.879761</ele>
        <time>2015-11-03T16:57:50Z</time>
      </trkpt>
      <trkpt lat="45.89611" lon="2.88756">
        <ele>868.121155</ele>
        <time>2015-11-03T16:57:50Z</time>
      </trkpt>
      <trkpt lat="45.89614" lon="2.88752">
        <ele>868.307617</ele>
        <time>2015-11-03T16:57:50Z</time>
      </trkpt>
      <trkpt lat="45.89618" lon="2.88748">
        <ele>868.584045</ele>
        <time>2015-11-03T16:57:50Z</time>
      </trkpt>
      <trkpt lat="45.89622" lon="2.88744">
        <ele>868.845703</ele>
        <time>2015-11-03T16:57:50Z</time>
      </trkpt>
      <trkpt lat="45.89625" lon="2.88741">
        <ele>868.88501</ele>
        <time>2015-11-03T16:57:50Z</time>
      </trkpt>
      <trkpt lat="45.89631" lon="2.88738">
        <ele>868.825989</ele>
        <time>2015-11-03T16:57:50Z</time>
      </trkpt>
      <trkpt lat="45.89636" lon="2.88732">
        <ele>868.902954</ele>
        <time>2015-11-03T16:57:50Z</time>
      </trkpt>
      <trkpt lat="45.89638" lon="2.88723">
        <ele>869.158691</ele>
        <time>2015-11-03T16:57:50Z</time>
      </trkpt>
      <trkpt lat="45.89638" lon="2.88712">
        <ele>869.507019</ele>
        <time>2015-11-03T16:57:50Z</time>
      </trkpt>
      <trkpt lat="45.8964" lon="2.88703">
        <ele>869.835999</ele>
        <time>2015-11-03T16:57:50Z</time>
      </trkpt>
      <trkpt lat="45.89641" lon="2.88694">
        <ele>870.145264</ele>
        <time>2015-11-03T16:57:50Z</time>
      </trkpt>
      <trkpt lat="45.8964" lon="2.88688">
        <ele>870.382385</ele>
        <time>2015-11-03T16:57:50Z</time>
      </trkpt>
      <trkpt lat="45.8964" lon="2.88684">
        <ele>870.472778</ele>
        <time>2015-11-03T16:57:50Z</time>
      </trkpt>
      <trkpt lat="45.89644" lon="2.88682">
        <ele>870.681519</ele>
        <time>2015-11-03T16:57:50Z</time>
      </trkpt>
      <trkpt lat="45.89648" lon="2.88682">
        <ele>870.848328</ele>
        <time>2015-11-03T16:57:50Z</time>
      </trkpt>
      <trkpt lat="45.89655" lon="2.88683">
        <ele>871.052917</ele>
        <time>2015-11-03T16:57:50Z</time>
      </trkpt>
      <trkpt lat="45.89662" lon="2.88683">
        <ele>871.308533</ele>
        <time>2015-11-03T16:57:50Z</time>
      </trkpt>
      <trkpt lat="45.89663" lon="2.88682">
        <ele>871.400391</ele>
        <time>2015-11-03T16:57:50Z</time>
      </trkpt>
      <trkpt lat="45.89668" lon="2.88684">
        <ele>871.35498</ele>
        <time>2015-11-03T16:57:50Z</time>
      </trkpt>
      <trkpt lat="45.89677" lon="2.88684">
        <ele>870.575012</ele>
        <time>2015-11-03T16:57:50Z</time>
      </trkpt>
      <trkpt lat="45.89681" lon="2.88684">
        <ele>870.265015</ele>
        <time>2015-11-03T16:57:50Z</time>
      </trkpt>
      <trkpt lat="45.89682" lon="2.88679">
        <ele>870.424988</ele>
        <time>2015-11-03T16:57:50Z</time>
      </trkpt>
      <trkpt lat="45.89686" lon="2.88677">
        <ele>870.23999</ele>
        <time>2015-11-03T16:57:50Z</time>
      </trkpt>
      <trkpt lat="45.8969" lon="2.88672">
        <ele>870.233154</ele>
        <time>2015-11-03T16:57:50Z</time>
      </trkpt>
      <trkpt lat="45.89697" lon="2.8867">
        <ele>869.962341</ele>
        <time>2015-11-03T16:57:50Z</time>
      </trkpt>
      <trkpt lat="45.897" lon="2.88667">
        <ele>870.018799</ele>
        <time>2015-11-03T16:57:50Z</time>
      </trkpt>
      <trkpt lat="45.89704" lon="2.88664">
        <ele>869.919983</ele>
        <time>2015-11-03T16:57:50Z</time>
      </trkpt>
      <trkpt lat="45.89708" lon="2.88661">
        <ele>870.014465</ele>
        <time>2015-11-03T16:57:50Z</time>
      </trkpt>
      <trkpt lat="45.89712" lon="2.88657">
        <ele>870.038757</ele>
        <time>2015-11-03T16:57:50Z</time>
      </trkpt>
      <trkpt lat="45.89718" lon="2.88653">
        <ele>869.459106</ele>
        <time>2015-11-03T16:57:50Z</time>
      </trkpt>
      <trkpt lat="45.89719" lon="2.88647">
        <ele>869.889282</ele>
        <time>2015-11-03T16:57:50Z</time>
      </trkpt>
      <trkpt lat="45.89721" lon="2.88639">
        <ele>870.378662</ele>
        <time>2015-11-03T16:57:50Z</time>
      </trkpt>
      <trkpt lat="45.89722" lon="2.88631">
        <ele>871.026489</ele>
        <time>2015-11-03T16:57:50Z</time>
      </trkpt>
      <trkpt lat="45.89726" lon="2.88623">
        <ele>870.888123</ele>
        <time>2015-11-03T16:57:50Z</time>
      </trkpt>
      <trkpt lat="45.8973" lon="2.88616">
        <ele>870.536011</ele>
        <time>2015-11-03T16:57:50Z</time>
      </trkpt>
      <trkpt lat="45.89725" lon="2.88609">
        <ele>872.289856</ele>
        <time>2015-11-03T16:57:50Z</time>
      </trkpt>
      <trkpt lat="45.89724" lon="2.88601">
        <ele>872.726868</ele>
        <time>2015-11-03T16:57:50Z</time>
      </trkpt>
      <trkpt lat="45.89729" lon="2.88594">
        <ele>871.742371</ele>
        <time>2015-11-03T16:57:50Z</time>
      </trkpt>
      <trkpt lat="45.89727" lon="2.88586">
        <ele>872.394592</ele>
        <time>2015-11-03T16:57:50Z</time>
      </trkpt>
      <trkpt lat="45.89728" lon="2.88575">
        <ele>872.234497</ele>
        <time>2015-11-03T16:57:50Z</time>
      </trkpt>
      <trkpt lat="45.89727" lon="2.88563">
        <ele>872.826782</ele>
        <time>2015-11-03T16:57:50Z</time>
      </trkpt>
      <trkpt lat="45.89728" lon="2.88558">
        <ele>872.757202</ele>
        <time>2015-11-03T16:57:50Z</time>
      </trkpt>
      <trkpt lat="45.8973" lon="2.88552">
        <ele>872.346985</ele>
        <time>2015-11-03T16:57:50Z</time>
      </trkpt>
      <trkpt lat="45.89733" lon="2.88542">
        <ele>870.811951</ele>
        <time>2015-11-03T16:57:50Z</time>
      </trkpt>
      <trkpt lat="45.89734" lon="2.88535">
        <ele>869.928406</ele>
        <time>2015-11-03T16:57:50Z</time>
      </trkpt>
      <trkpt lat="45.89734" lon="2.8853">
        <ele>869.083618</ele>
        <time>2015-11-03T16:57:50Z</time>
      </trkpt>
      <trkpt lat="45.89732" lon="2.88524">
        <ele>868.780579</ele>
        <time>2015-11-03T16:57:50Z</time>
      </trkpt>
      <trkpt lat="45.89733" lon="2.8852">
        <ele>868.096497</ele>
        <time>2015-11-03T16:57:50Z</time>
      </trkpt>
      <trkpt lat="45.89729" lon="2.88511">
        <ele>867.655457</ele>
        <time>2015-11-03T16:57:50Z</time>
      </trkpt>
      <trkpt lat="45.89728" lon="2.88502">
        <ele>866.82312</ele>
        <time>2015-11-03T16:57:50Z</time>
      </trkpt>
      <trkpt lat="45.89728" lon="2.88496">
        <ele>865.930176</ele>
        <time>2015-11-03T16:57:50Z</time>
      </trkpt>
      <trkpt lat="45.89729" lon="2.8849">
        <ele>864.912842</ele>
        <time>2015-11-03T16:57:50Z</time>
      </trkpt>
      <trkpt lat="45.89726" lon="2.88486">
        <ele>864.937805</ele>
        <time>2015-11-03T16:57:50Z</time>
      </trkpt>
      <trkpt lat="45.89722" lon="2.88481">
        <ele>864.911316</ele>
        <time>2015-11-03T16:57:50Z</time>
      </trkpt>
      <trkpt lat="45.89715" lon="2.88474">
        <ele>864.528625</ele>
        <time>2015-11-03T16:57:50Z</time>
      </trkpt>
      <trkpt lat="45.89708" lon="2.88466">
        <ele>863.906067</ele>
        <time>2015-11-03T16:57:50Z</time>
      </trkpt>
      <trkpt lat="45.89702" lon="2.88457">
        <ele>862.315613</ele>
        <time>2015-11-03T16:57:50Z</time>
      </trkpt>
      <trkpt lat="45.89698" lon="2.88454">
        <ele>861.984314</ele>
        <time>2015-11-03T16:57:50Z</time>
      </trkpt>
      <trkpt lat="45.89696" lon="2.88452">
        <ele>861.683472</ele>
        <time>2015-11-03T16:57:50Z</time>
      </trkpt>
      <trkpt lat="45.89691" lon="2.88446">
        <ele>860.611084</ele>
        <time>2015-11-03T16:57:50Z</time>
      </trkpt>
      <trkpt lat="45.89688" lon="2.88441">
        <ele>859.493774</ele>
        <time>2015-11-03T16:57:50Z</time>
      </trkpt>
      <trkpt lat="45.89682" lon="2.88435">
        <ele>858.324036</ele>
        <time>2015-11-03T16:57:50Z</time>
      </trkpt>
      <trkpt lat="45.89677" lon="2.8843">
        <ele>857.375</ele>
        <time>2015-11-03T16:57:50Z</time>
      </trkpt>
      <trkpt lat="45.89674" lon="2.88426">
        <ele>856.230042</ele>
        <time>2015-11-03T16:57:50Z</time>
      </trkpt>
      <trkpt lat="45.8967" lon="2.8842">
        <ele>854.685974</ele>
        <time>2015-11-03T16:57:50Z</time>
      </trkpt>
      <trkpt lat="45.89666" lon="2.88415">
        <ele>853.643982</ele>
        <time>2015-11-03T16:57:50Z</time>
      </trkpt>
      <trkpt lat="45.89662" lon="2.8841">
        <ele>852.987488</ele>
        <time>2015-11-03T16:57:50Z</time>
      </trkpt>
      <trkpt lat="45.89657" lon="2.88391">
        <ele>850.519104</ele>
        <time>2015-11-03T16:57:50Z</time>
      </trkpt>
      <trkpt lat="45.89657" lon="2.8839">
        <ele>850.408752</ele>
        <time>2015-11-03T16:57:50Z</time>
      </trkpt>
      <trkpt lat="45.8966" lon="2.88387">
        <ele>849.925781</ele>
        <time>2015-11-03T16:57:50Z</time>
      </trkpt>
      <trkpt lat="45.89658" lon="2.88381">
        <ele>849.234375</ele>
        <time>2015-11-03T16:57:50Z</time>
      </trkpt>
      <trkpt lat="45.89656" lon="2.88376">
        <ele>848.657471</ele>
        <time>2015-11-03T16:57:50Z</time>
      </trkpt>
      <trkpt lat="45.89652" lon="2.88369">
        <ele>847.85376</ele>
        <time>2015-11-03T16:57:50Z</time>
      </trkpt>
      <trkpt lat="45.89648" lon="2.88363">
        <ele>847.243103</ele>
        <time>2015-11-03T16:57:50Z</time>
      </trkpt>
      <trkpt lat="45.89644" lon="2.88357">
        <ele>846.663452</ele>
        <time>2015-11-03T16:57:50Z</time>
      </trkpt>
      <trkpt lat="45.8964" lon="2.88352">
        <ele>846.282349</ele>
        <time>2015-11-03T16:57:50Z</time>
      </trkpt>
      <trkpt lat="45.89635" lon="2.88348">
        <ele>846.30481</ele>
        <time>2015-11-03T16:57:50Z</time>
      </trkpt>
      <trkpt lat="45.89631" lon="2.88343">
        <ele>846.382935</ele>
        <time>2015-11-03T16:57:50Z</time>
      </trkpt>
      <trkpt lat="45.89626" lon="2.88339">
        <ele>846.455872</ele>
        <time>2015-11-03T16:57:50Z</time>
      </trkpt>
      <trkpt lat="45.89622" lon="2.88335">
        <ele>846.40155</ele>
        <time>2015-11-03T16:57:50Z</time>
      </trkpt>
      <trkpt lat="45.89617" lon="2.88331">
        <ele>846.14447</ele>
        <time>2015-11-03T16:57:50Z</time>
      </trkpt>
      <trkpt lat="45.89613" lon="2.88328">
        <ele>845.887878</ele>
        <time>2015-11-03T16:57:50Z</time>
      </trkpt>
      <trkpt lat="45.89608" lon="2.88325">
        <ele>845.646667</ele>
        <time>2015-11-03T16:57:50Z</time>
      </trkpt>
      <trkpt lat="45.89603" lon="2.88321">
        <ele>845.340759</ele>
        <time>2015-11-03T16:57:50Z</time>
      </trkpt>
      <trkpt lat="45.89599" lon="2.88317">
        <ele>845.046143</ele>
        <time>2015-11-03T16:57:50Z</time>
      </trkpt>
      <trkpt lat="45.89595" lon="2.88311">
        <ele>844.675293</ele>
        <time>2015-11-03T16:57:50Z</time>
      </trkpt>
      <trkpt lat="45.89594" lon="2.88305">
        <ele>844.364197</ele>
        <time>2015-11-03T16:57:50Z</time>
      </trkpt>
      <trkpt lat="45.89593" lon="2.88298">
        <ele>844.026855</ele>
        <time>2015-11-03T16:57:50Z</time>
      </trkpt>
      <trkpt lat="45.89593" lon="2.88291">
        <ele>843.75415</ele>
        <time>2015-11-03T16:57:50Z</time>
      </trkpt>
      <trkpt lat="45.89593" lon="2.88284">
        <ele>843.438782</ele>
        <time>2015-11-03T16:57:50Z</time>
      </trkpt>
      <trkpt lat="45.89593" lon="2.88277">
        <ele>843.116272</ele>
        <time>2015-11-03T16:57:50Z</time>
      </trkpt>
      <trkpt lat="45.89594" lon="2.8827">
        <ele>842.849976</ele>
        <time>2015-11-03T16:57:50Z</time>
      </trkpt>
      <trkpt lat="45.89595" lon="2.88264">
        <ele>842.596252</ele>
        <time>2015-11-03T16:57:50Z</time>
      </trkpt>
      <trkpt lat="45.89596" lon="2.88257">
        <ele>842.293762</ele>
        <time>2015-11-03T16:57:50Z</time>
      </trkpt>
      <trkpt lat="45.89595" lon="2.88249">
        <ele>841.875</ele>
        <time>2015-11-03T16:57:50Z</time>
      </trkpt>
      <trkpt lat="45.89595" lon="2.88241">
        <ele>841.497498</ele>
        <time>2015-11-03T16:57:50Z</time>
      </trkpt>
      <trkpt lat="45.89595" lon="2.88234">
        <ele>841.15625</ele>
        <time>2015-11-03T16:57:50Z</time>
      </trkpt>
      <trkpt lat="45.89598" lon="2.88233">
        <ele>841.26001</ele>
        <time>2015-11-03T16:57:50Z</time>
      </trkpt>
      <trkpt lat="45.89597" lon="2.88229">
        <ele>841.056274</ele>
        <time>2015-11-03T16:57:50Z</time>
      </trkpt>
      <trkpt lat="45.89596" lon="2.88223">
        <ele>840.664185</ele>
        <time>2015-11-03T16:57:50Z</time>
      </trkpt>
      <trkpt lat="45.89594" lon="2.88215">
        <ele>839.707825</ele>
        <time>2015-11-03T16:57:50Z</time>
      </trkpt>
      <trkpt lat="45.89591" lon="2.88208">
        <ele>838.878418</ele>
        <time>2015-11-03T16:57:50Z</time>
      </trkpt>
      <trkpt lat="45.89587" lon="2.882">
        <ele>838.119385</ele>
        <time>2015-11-03T16:57:50Z</time>
      </trkpt>
      <trkpt lat="45.89583" lon="2.88194">
        <ele>837.597229</ele>
        <time>2015-11-03T16:57:50Z</time>
      </trkpt>
      <trkpt lat="45.8958" lon="2.88187">
        <ele>837.158936</ele>
        <time>2015-11-03T16:57:50Z</time>
      </trkpt>
      <trkpt lat="45.89577" lon="2.8818">
        <ele>836.47113</ele>
        <time>2015-11-03T16:57:50Z</time>
      </trkpt>
      <trkpt lat="45.89575" lon="2.88173">
        <ele>835.780273</ele>
        <time>2015-11-03T16:57:50Z</time>
      </trkpt>
      <trkpt lat="45.89573" lon="2.88167">
        <ele>835.138062</ele>
        <time>2015-11-03T16:57:50Z</time>
      </trkpt>
      <trkpt lat="45.89572" lon="2.8816">
        <ele>834.520264</ele>
        <time>2015-11-03T16:57:50Z</time>
      </trkpt>
      <trkpt lat="45.89569" lon="2.88153">
        <ele>833.582825</ele>
        <time>2015-11-03T16:57:50Z</time>
      </trkpt>
      <trkpt lat="45.89567" lon="2.88146">
        <ele>832.590088</ele>
        <time>2015-11-03T16:57:50Z</time>
      </trkpt>
      <trkpt lat="45.89564" lon="2.8814">
        <ele>831.716675</ele>
        <time>2015-11-03T16:57:50Z</time>
      </trkpt>
      <trkpt lat="45.89563" lon="2.88132">
        <ele>830.753113</ele>
        <time>2015-11-03T16:57:50Z</time>
      </trkpt>
      <trkpt lat="45.89564" lon="2.88124">
        <ele>829.878784</ele>
        <time>2015-11-03T16:57:50Z</time>
      </trkpt>
      <trkpt lat="45.89567" lon="2.88117">
        <ele>829.100403</ele>
        <time>2015-11-03T16:57:50Z</time>
      </trkpt>
      <trkpt lat="45.89568" lon="2.88111">
        <ele>828.329407</ele>
        <time>2015-11-03T16:57:50Z</time>
      </trkpt>
      <trkpt lat="45.89568" lon="2.88104">
        <ele>827.47583</ele>
        <time>2015-11-03T16:57:50Z</time>
      </trkpt>
      <trkpt lat="45.89572" lon="2.88099">
        <ele>826.825134</ele>
        <time>2015-11-03T16:57:50Z</time>
      </trkpt>
      <trkpt lat="45.89575" lon="2.88093">
        <ele>826.029541</ele>
        <time>2015-11-03T16:57:50Z</time>
      </trkpt>
      <trkpt lat="45.89579" lon="2.8809">
        <ele>825.641113</ele>
        <time>2015-11-03T16:57:50Z</time>
      </trkpt>
      <trkpt lat="45.89584" lon="2.88094">
        <ele>825.366333</ele>
        <time>2015-11-03T16:57:50Z</time>
      </trkpt>
      <trkpt lat="45.8959" lon="2.88098">
        <ele>825.251404</ele>
        <time>2015-11-03T16:57:50Z</time>
      </trkpt>
      <trkpt lat="45.89594" lon="2.88099">
        <ele>824.815002</ele>
        <time>2015-11-03T16:57:50Z</time>
      </trkpt>
      <trkpt lat="45.89597" lon="2.88093">
        <ele>823.588745</ele>
        <time>2015-11-03T16:57:50Z</time>
      </trkpt>
      <trkpt lat="45.89603" lon="2.88088">
        <ele>822.330933</ele>
        <time>2015-11-03T16:57:50Z</time>
      </trkpt>
      <trkpt lat="45.89608" lon="2.88082">
        <ele>821.208069</ele>
        <time>2015-11-03T16:57:50Z</time>
      </trkpt>
      <trkpt lat="45.89612" lon="2.88076">
        <ele>820.035522</ele>
        <time>2015-11-03T16:57:50Z</time>
      </trkpt>
      <trkpt lat="45.89609" lon="2.88067">
        <ele>819.656372</ele>
        <time>2015-11-03T16:57:50Z</time>
      </trkpt>
      <trkpt lat="45.89606" lon="2.88057">
        <ele>819.286743</ele>
        <time>2015-11-03T16:57:50Z</time>
      </trkpt>
      <trkpt lat="45.89606" lon="2.88047">
        <ele>818.526672</ele>
        <time>2015-11-03T16:57:50Z</time>
      </trkpt>
      <trkpt lat="45.89608" lon="2.88039">
        <ele>817.42572</ele>
        <time>2015-11-03T16:57:50Z</time>
      </trkpt>
      <trkpt lat="45.89607" lon="2.88029">
        <ele>816.804932</ele>
        <time>2015-11-03T16:57:50Z</time>
      </trkpt>
      <trkpt lat="45.89607" lon="2.88019">
        <ele>816.46936</ele>
        <time>2015-11-03T16:57:50Z</time>
      </trkpt>
      <trkpt lat="45.89606" lon="2.88011">
        <ele>816.277954</ele>
        <time>2015-11-03T16:57:50Z</time>
      </trkpt>
      <trkpt lat="45.89608" lon="2.88005">
        <ele>815.746948</ele>
        <time>2015-11-03T16:57:50Z</time>
      </trkpt>
      <trkpt lat="45.89609" lon="2.87998">
        <ele>815.360657</ele>
        <time>2015-11-03T16:57:50Z</time>
      </trkpt>
      <trkpt lat="45.89612" lon="2.87992">
        <ele>814.68512</ele>
        <time>2015-11-03T16:57:50Z</time>
      </trkpt>
      <trkpt lat="45.89614" lon="2.87985">
        <ele>814.24646</ele>
        <time>2015-11-03T16:57:50Z</time>
      </trkpt>
      <trkpt lat="45.89614" lon="2.87978">
        <ele>813.92749</ele>
        <time>2015-11-03T16:57:50Z</time>
      </trkpt>
      <trkpt lat="45.89614" lon="2.87971">
        <ele>813.72168</ele>
        <time>2015-11-03T16:57:50Z</time>
      </trkpt>
      <trkpt lat="45.89617" lon="2.87964">
        <ele>812.987915</ele>
        <time>2015-11-03T16:57:50Z</time>
      </trkpt>
      <trkpt lat="45.89618" lon="2.87955">
        <ele>812.590149</ele>
        <time>2015-11-03T16:57:50Z</time>
      </trkpt>
      <trkpt lat="45.89618" lon="2.87947">
        <ele>812.295227</ele>
        <time>2015-11-03T16:57:50Z</time>
      </trkpt>
      <trkpt lat="45.89619" lon="2.87939">
        <ele>811.844238</ele>
        <time>2015-11-03T16:57:50Z</time>
      </trkpt>
      <trkpt lat="45.89619" lon="2.87932">
        <ele>811.67041</ele>
        <time>2015-11-03T16:57:50Z</time>
      </trkpt>
      <trkpt lat="45.89621" lon="2.87923">
        <ele>811.08197</ele>
        <time>2015-11-03T16:57:50Z</time>
      </trkpt>
      <trkpt lat="45.89622" lon="2.87915">
        <ele>810.710388</ele>
        <time>2015-11-03T16:57:50Z</time>
      </trkpt>
      <trkpt lat="45.89624" lon="2.8791">
        <ele>810.412537</ele>
        <time>2015-11-03T16:57:50Z</time>
      </trkpt>
      <trkpt lat="45.89624" lon="2.87905">
        <ele>810.228638</ele>
        <time>2015-11-03T16:57:50Z</time>
      </trkpt>
      <trkpt lat="45.89629" lon="2.87899">
        <ele>809.498596</ele>
        <time>2015-11-03T16:57:50Z</time>
      </trkpt>
      <trkpt lat="45.8963" lon="2.87884">
        <ele>809.023193</ele>
        <time>2015-11-03T16:57:50Z</time>
      </trkpt>
      <trkpt lat="45.89635" lon="2.87881">
        <ele>808.279968</ele>
        <time>2015-11-03T16:57:50Z</time>
      </trkpt>
      <trkpt lat="45.89637" lon="2.87878">
        <ele>807.931763</ele>
        <time>2015-11-03T16:57:50Z</time>
      </trkpt>
      <trkpt lat="45.89642" lon="2.87874">
        <ele>807.286377</ele>
        <time>2015-11-03T16:57:50Z</time>
      </trkpt>
      <trkpt lat="45.89648" lon="2.87869">
        <ele>806.610535</ele>
        <time>2015-11-03T16:57:50Z</time>
      </trkpt>
      <trkpt lat="45.89653" lon="2.87864">
        <ele>805.929993</ele>
        <time>2015-11-03T16:57:50Z</time>
      </trkpt>
      <trkpt lat="45.89657" lon="2.87859">
        <ele>805.493591</ele>
        <time>2015-11-03T16:57:50Z</time>
      </trkpt>
      <trkpt lat="45.8966" lon="2.87853">
        <ele>805.098206</ele>
        <time>2015-11-03T16:57:50Z</time>
      </trkpt>
      <trkpt lat="45.89665" lon="2.87846">
        <ele>804.576111</ele>
        <time>2015-11-03T16:57:50Z</time>
      </trkpt>
      <trkpt lat="45.89672" lon="2.87839">
        <ele>803.898499</ele>
        <time>2015-11-03T16:57:50Z</time>
      </trkpt>
      <trkpt lat="45.89676" lon="2.87833">
        <ele>803.506897</ele>
        <time>2015-11-03T16:57:50Z</time>
      </trkpt>
      <trkpt lat="45.89678" lon="2.87826">
        <ele>803.251953</ele>
        <time>2015-11-03T16:57:50Z</time>
      </trkpt>
      <trkpt lat="45.8968" lon="2.87822">
        <ele>803.096313</ele>
        <time>2015-11-03T16:57:50Z</time>
      </trkpt>
      <trkpt lat="45.89681" lon="2.87818">
        <ele>802.989502</ele>
        <time>2015-11-03T16:57:50Z</time>
      </trkpt>
      <trkpt lat="45.89687" lon="2.87812">
        <ele>802.435547</ele>
        <time>2015-11-03T16:57:50Z</time>
      </trkpt>
      <trkpt lat="45.8969" lon="2.87807">
        <ele>802.165833</ele>
        <time>2015-11-03T16:57:50Z</time>
      </trkpt>
      <trkpt lat="45.89692" lon="2.87801">
        <ele>801.941223</ele>
        <time>2015-11-03T16:57:50Z</time>
      </trkpt>
      <trkpt lat="45.89696" lon="2.87796">
        <ele>801.58783</ele>
        <time>2015-11-03T16:57:50Z</time>
      </trkpt>
      <trkpt lat="45.89702" lon="2.8779">
        <ele>801.147461</ele>
        <time>2015-11-03T16:57:50Z</time>
      </trkpt>
      <trkpt lat="45.89704" lon="2.87783">
        <ele>800.975952</ele>
        <time>2015-11-03T16:57:50Z</time>
      </trkpt>
      <trkpt lat="45.89708" lon="2.87774">
        <ele>800.729797</ele>
        <time>2015-11-03T16:57:50Z</time>
      </trkpt>
      <trkpt lat="45.89714" lon="2.87769">
        <ele>800.154602</ele>
        <time>2015-11-03T16:57:50Z</time>
      </trkpt>
      <trkpt lat="45.89717" lon="2.87763">
        <ele>799.753723</ele>
        <time>2015-11-03T16:57:50Z</time>
      </trkpt>
      <trkpt lat="45.89722" lon="2.87758">
        <ele>799.299988</ele>
        <time>2015-11-03T16:57:50Z</time>
      </trkpt>
      <trkpt lat="45.89723" lon="2.8775">
        <ele>799.05127</ele>
        <time>2015-11-03T16:57:50Z</time>
      </trkpt>
      <trkpt lat="45.89727" lon="2.87744">
        <ele>798.626282</ele>
        <time>2015-11-03T16:57:50Z</time>
      </trkpt>
      <trkpt lat="45.8973" lon="2.8774">
        <ele>798.30127</ele>
        <time>2015-11-03T16:57:50Z</time>
      </trkpt>
      <trkpt lat="45.89734" lon="2.87735">
        <ele>797.88501</ele>
        <time>2015-11-03T16:57:50Z</time>
      </trkpt>
      <trkpt lat="45.89736" lon="2.8773">
        <ele>797.599976</ele>
        <time>2015-11-03T16:57:50Z</time>
      </trkpt>
      <trkpt lat="45.89743" lon="2.87724">
        <ele>796.913757</ele>
        <time>2015-11-03T16:57:50Z</time>
      </trkpt>
      <trkpt lat="45.89746" lon="2.8772">
        <ele>796.588745</ele>
        <time>2015-11-03T16:57:50Z</time>
      </trkpt>
      <trkpt lat="45.89751" lon="2.87715">
        <ele>796.087524</ele>
        <time>2015-11-03T16:57:50Z</time>
      </trkpt>
      <trkpt lat="45.89755" lon="2.87709">
        <ele>795.588196</ele>
        <time>2015-11-03T16:57:50Z</time>
      </trkpt>
      <trkpt lat="45.89758" lon="2.87703">
        <ele>795.062561</ele>
        <time>2015-11-03T16:57:50Z</time>
      </trkpt>
      <trkpt lat="45.89761" lon="2.87697">
        <ele>794.445496</ele>
        <time>2015-11-03T16:57:50Z</time>
      </trkpt>
      <trkpt lat="45.89766" lon="2.87692">
        <ele>793.851257</ele>
        <time>2015-11-03T16:57:50Z</time>
      </trkpt>
      <trkpt lat="45.8977" lon="2.87687">
        <ele>793.257507</ele>
        <time>2015-11-03T16:57:50Z</time>
      </trkpt>
      <trkpt lat="45.89773" lon="2.87682">
        <ele>792.701233</ele>
        <time>2015-11-03T16:57:50Z</time>
      </trkpt>
      <trkpt lat="45.89777" lon="2.87676">
        <ele>792.087524</ele>
        <time>2015-11-03T16:57:50Z</time>
      </trkpt>
      <trkpt lat="45.89781" lon="2.87671">
        <ele>791.527527</ele>
        <time>2015-11-03T16:57:50Z</time>
      </trkpt>
      <trkpt lat="45.89782" lon="2.87671">
        <ele>791.35376</ele>
        <time>2015-11-03T16:57:50Z</time>
      </trkpt>
      <trkpt lat="45.89784" lon="2.87668">
        <ele>791.03125</ele>
        <time>2015-11-03T16:57:50Z</time>
      </trkpt>
      <trkpt lat="45.89788" lon="2.87664">
        <ele>790.571228</ele>
        <time>2015-11-03T16:57:50Z</time>
      </trkpt>
      <trkpt lat="45.89788" lon="2.87662">
        <ele>790.483765</ele>
        <time>2015-11-03T16:57:50Z</time>
      </trkpt>
      <trkpt lat="45.89792" lon="2.87659">
        <ele>789.95874</ele>
        <time>2015-11-03T16:57:50Z</time>
      </trkpt>
      <trkpt lat="45.89796" lon="2.87654">
        <ele>789.338745</ele>
        <time>2015-11-03T16:57:50Z</time>
      </trkpt>
      <trkpt lat="45.89801" lon="2.8765">
        <ele>788.747498</ele>
        <time>2015-11-03T16:57:50Z</time>
      </trkpt>
      <trkpt lat="45.89805" lon="2.87645">
        <ele>788.137512</ele>
        <time>2015-11-03T16:57:50Z</time>
      </trkpt>
      <trkpt lat="45.89808" lon="2.87641">
        <ele>787.533081</ele>
        <time>2015-11-03T16:57:50Z</time>
      </trkpt>
      <trkpt lat="45.89812" lon="2.87633">
        <ele>786.600342</ele>
        <time>2015-11-03T16:57:50Z</time>
      </trkpt>
      <trkpt lat="45.89813" lon="2.87626">
        <ele>786.019409</ele>
        <time>2015-11-03T16:57:50Z</time>
      </trkpt>
      <trkpt lat="45.89811" lon="2.87618">
        <ele>785.583435</ele>
        <time>2015-11-03T16:57:50Z</time>
      </trkpt>
      <trkpt lat="45.89807" lon="2.87611">
        <ele>785.275024</ele>
        <time>2015-11-03T16:57:50Z</time>
      </trkpt>
      <trkpt lat="45.89804" lon="2.87604">
        <ele>785.067505</ele>
        <time>2015-11-03T16:57:50Z</time>
      </trkpt>
      <trkpt lat="45.89801" lon="2.87598">
        <ele>784.852478</ele>
        <time>2015-11-03T16:57:50Z</time>
      </trkpt>
      <trkpt lat="45.89797" lon="2.87591">
        <ele>784.690002</ele>
        <time>2015-11-03T16:57:50Z</time>
      </trkpt>
      <trkpt lat="45.89793" lon="2.87584">
        <ele>784.48999</ele>
        <time>2015-11-03T16:57:50Z</time>
      </trkpt>
      <trkpt lat="45.8979" lon="2.87577">
        <ele>784.242493</ele>
        <time>2015-11-03T16:57:50Z</time>
      </trkpt>
      <trkpt lat="45.89785" lon="2.87571">
        <ele>784.007507</ele>
        <time>2015-11-03T16:57:50Z</time>
      </trkpt>
      <trkpt lat="45.89782" lon="2.87565">
        <ele>783.799988</ele>
        <time>2015-11-03T16:57:50Z</time>
      </trkpt>
      <trkpt lat="45.89779" lon="2.8756">
        <ele>783.52002</ele>
        <time>2015-11-03T16:57:50Z</time>
      </trkpt>
      <trkpt lat="45.89776" lon="2.87554">
        <ele>783.22998</ele>
        <time>2015-11-03T16:57:50Z</time>
      </trkpt>
      <trkpt lat="45.89772" lon="2.87547">
        <ele>783.007507</ele>
        <time>2015-11-03T16:57:50Z</time>
      </trkpt>
      <trkpt lat="45.89769" lon="2.87541">
        <ele>782.755005</ele>
        <time>2015-11-03T16:57:50Z</time>
      </trkpt>
      <trkpt lat="45.89765" lon="2.87535">
        <ele>782.532471</ele>
        <time>2015-11-03T16:57:50Z</time>
      </trkpt>
      <trkpt lat="45.89761" lon="2.87529">
        <ele>782.3125</ele>
        <time>2015-11-03T16:57:50Z</time>
      </trkpt>
      <trkpt lat="45.89757" lon="2.87523">
        <ele>782.005005</ele>
        <time>2015-11-03T16:57:50Z</time>
      </trkpt>
      <trkpt lat="45.89754" lon="2.87517">
        <ele>781.652527</ele>
        <time>2015-11-03T16:57:50Z</time>
      </trkpt>
      <trkpt lat="45.89749" lon="2.87511">
        <ele>781.470703</ele>
        <time>2015-11-03T16:57:50Z</time>
      </trkpt>
      <trkpt lat="45.89745" lon="2.87505">
        <ele>781.226074</ele>
        <time>2015-11-03T16:57:50Z</time>
      </trkpt>
      <trkpt lat="45.89742" lon="2.87499">
        <ele>780.967285</ele>
        <time>2015-11-03T16:57:50Z</time>
      </trkpt>
      <trkpt lat="45.89739" lon="2.87493">
        <ele>780.667175</ele>
        <time>2015-11-03T16:57:50Z</time>
      </trkpt>
      <trkpt lat="45.89736" lon="2.87488">
        <ele>780.337158</ele>
        <time>2015-11-03T16:57:50Z</time>
      </trkpt>
      <trkpt lat="45.89733" lon="2.87482">
        <ele>780.010132</ele>
        <time>2015-11-03T16:57:50Z</time>
      </trkpt>
      <trkpt lat="45.8973" lon="2.87476">
        <ele>779.651733</ele>
        <time>2015-11-03T16:57:50Z</time>
      </trkpt>
      <trkpt lat="45.89726" lon="2.8747">
        <ele>779.294556</ele>
        <time>2015-11-03T16:57:50Z</time>
      </trkpt>
      <trkpt lat="45.89722" lon="2.87464">
        <ele>778.935486</ele>
        <time>2015-11-03T16:57:50Z</time>
      </trkpt>
      <trkpt lat="45.89718" lon="2.87457">
        <ele>778.514587</ele>
        <time>2015-11-03T16:57:50Z</time>
      </trkpt>
      <trkpt lat="45.89714" lon="2.87451">
        <ele>777.981262</ele>
        <time>2015-11-03T16:57:50Z</time>
      </trkpt>
      <trkpt lat="45.8971" lon="2.87445">
        <ele>777.70752</ele>
        <time>2015-11-03T16:57:50Z</time>
      </trkpt>
      <trkpt lat="45.89706" lon="2.8744">
        <ele>777.456238</ele>
        <time>2015-11-03T16:57:50Z</time>
      </trkpt>
      <trkpt lat="45.89702" lon="2.87435">
        <ele>777.223755</ele>
        <time>2015-11-03T16:57:50Z</time>
      </trkpt>
      <trkpt lat="45.89697" lon="2.8743">
        <ele>777.032471</ele>
        <time>2015-11-03T16:57:50Z</time>
      </trkpt>
      <trkpt lat="45.89692" lon="2.87426">
        <ele>776.83374</ele>
        <time>2015-11-03T16:57:50Z</time>
      </trkpt>
      <trkpt lat="45.89687" lon="2.87422">
        <ele>776.661255</ele>
        <time>2015-11-03T16:57:50Z</time>
      </trkpt>
      <trkpt lat="45.89682" lon="2.87419">
        <ele>776.51123</ele>
        <time>2015-11-03T16:57:50Z</time>
      </trkpt>
      <trkpt lat="45.89677" lon="2.87415">
        <ele>776.32373</ele>
        <time>2015-11-03T16:57:50Z</time>
      </trkpt>
      <trkpt lat="45.89672" lon="2.87412">
        <ele>776.114014</ele>
        <time>2015-11-03T16:57:50Z</time>
      </trkpt>
      <trkpt lat="45.89667" lon="2.87408">
        <ele>775.656982</ele>
        <time>2015-11-03T16:57:50Z</time>
      </trkpt>
      <trkpt lat="45.89663" lon="2.87405">
        <ele>775.221008</ele>
        <time>2015-11-03T16:57:50Z</time>
      </trkpt>
      <trkpt lat="45.89658" lon="2.87401">
        <ele>774.72467</ele>
        <time>2015-11-03T16:57:50Z</time>
      </trkpt>
      <trkpt lat="45.89652" lon="2.87398">
        <ele>774.223267</ele>
        <time>2015-11-03T16:57:50Z</time>
      </trkpt>
      <trkpt lat="45.89647" lon="2.87395">
        <ele>773.687744</ele>
        <time>2015-11-03T16:57:50Z</time>
      </trkpt>
      <trkpt lat="45.89642" lon="2.87391">
        <ele>773.172852</ele>
        <time>2015-11-03T16:57:50Z</time>
      </trkpt>
      <trkpt lat="45.89636" lon="2.87387">
        <ele>772.611633</ele>
        <time>2015-11-03T16:57:50Z</time>
      </trkpt>
      <trkpt lat="45.89632" lon="2.87384">
        <ele>772.129761</ele>
        <time>2015-11-03T16:57:50Z</time>
      </trkpt>
      <trkpt lat="45.89626" lon="2.8738">
        <ele>771.673279</ele>
        <time>2015-11-03T16:57:50Z</time>
      </trkpt>
      <trkpt lat="45.89623" lon="2.87372">
        <ele>771.218994</ele>
        <time>2015-11-03T16:57:50Z</time>
      </trkpt>
      <trkpt lat="45.89623" lon="2.87365">
        <ele>770.950989</ele>
        <time>2015-11-03T16:57:50Z</time>
      </trkpt>
      <trkpt lat="45.89623" lon="2.87359">
        <ele>770.754883</ele>
        <time>2015-11-03T16:57:50Z</time>
      </trkpt>
      <trkpt lat="45.89622" lon="2.87353">
        <ele>770.429321</ele>
        <time>2015-11-03T16:57:50Z</time>
      </trkpt>
      <trkpt lat="45.89621" lon="2.87346">
        <ele>770.13916</ele>
        <time>2015-11-03T16:57:50Z</time>
      </trkpt>
      <trkpt lat="45.89617" lon="2.87339">
        <ele>769.574768</ele>
        <time>2015-11-03T16:57:50Z</time>
      </trkpt>
      <trkpt lat="45.89615" lon="2.87332">
        <ele>769.140137</ele>
        <time>2015-11-03T16:57:50Z</time>
      </trkpt>
      <trkpt lat="45.89613" lon="2.87326">
        <ele>768.730103</ele>
        <time>2015-11-03T16:57:50Z</time>
      </trkpt>
      <trkpt lat="45.8961" lon="2.87319">
        <ele>768.210022</ele>
        <time>2015-11-03T16:57:50Z</time>
      </trkpt>
      <trkpt lat="45.89607" lon="2.87313">
        <ele>767.52002</ele>
        <time>2015-11-03T16:57:50Z</time>
      </trkpt>
      <trkpt lat="45.89602" lon="2.87308">
        <ele>766.815002</ele>
        <time>2015-11-03T16:57:50Z</time>
      </trkpt>
      <trkpt lat="45.896" lon="2.873">
        <ele>766.119995</ele>
        <time>2015-11-03T16:57:50Z</time>
      </trkpt>
      <trkpt lat="45.89598" lon="2.87292">
        <ele>765.39502</ele>
        <time>2015-11-03T16:57:50Z</time>
      </trkpt>
      <trkpt lat="45.89595" lon="2.87284">
        <ele>764.690002</ele>
        <time>2015-11-03T16:57:50Z</time>
      </trkpt>
      <trkpt lat="45.89594" lon="2.87275">
        <ele>764</ele>
        <time>2015-11-03T16:57:50Z</time>
      </trkpt>
      <trkpt lat="45.89592" lon="2.87268">
        <ele>763.429993</ele>
        <time>2015-11-03T16:57:50Z</time>
      </trkpt>
      <trkpt lat="45.8959" lon="2.8726">
        <ele>762.724976</ele>
        <time>2015-11-03T16:57:50Z</time>
      </trkpt>
      <trkpt lat="45.89588" lon="2.87253">
        <ele>762.158264</ele>
        <time>2015-11-03T16:57:50Z</time>
      </trkpt>
      <trkpt lat="45.89589" lon="2.87245">
        <ele>761.786011</ele>
        <time>2015-11-03T16:57:50Z</time>
      </trkpt>
      <trkpt lat="45.89591" lon="2.87237">
        <ele>761.53717</ele>
        <time>2015-11-03T16:57:50Z</time>
      </trkpt>
      <trkpt lat="45.89592" lon="2.87228">
        <ele>761.126831</ele>
        <time>2015-11-03T16:57:50Z</time>
      </trkpt>
      <trkpt lat="45.89594" lon="2.8722">
        <ele>760.763977</ele>
        <time>2015-11-03T16:57:50Z</time>
      </trkpt>
      <trkpt lat="45.89594" lon="2.87211">
        <ele>760.299927</ele>
        <time>2015-11-03T16:57:50Z</time>
      </trkpt>
      <trkpt lat="45.89595" lon="2.87203">
        <ele>759.855591</ele>
        <time>2015-11-03T16:57:50Z</time>
      </trkpt>
      <trkpt lat="45.89597" lon="2.87195">
        <ele>759.447144</ele>
        <time>2015-11-03T16:57:50Z</time>
      </trkpt>
      <trkpt lat="45.89596" lon="2.87187">
        <ele>759.247742</ele>
        <time>2015-11-03T16:57:50Z</time>
      </trkpt>
      <trkpt lat="45.89596" lon="2.87179">
        <ele>759.201782</ele>
        <time>2015-11-03T16:57:50Z</time>
      </trkpt>
      <trkpt lat="45.89596" lon="2.87171">
        <ele>759.163513</ele>
        <time>2015-11-03T16:57:50Z</time>
      </trkpt>
      <trkpt lat="45.89594" lon="2.87163">
        <ele>759.120728</ele>
        <time>2015-11-03T16:57:50Z</time>
      </trkpt>
      <trkpt lat="45.89592" lon="2.87155">
        <ele>759.072021</ele>
        <time>2015-11-03T16:57:50Z</time>
      </trkpt>
      <trkpt lat="45.8959" lon="2.87148">
        <ele>759.040955</ele>
        <time>2015-11-03T16:57:50Z</time>
      </trkpt>
      <trkpt lat="45.89589" lon="2.8714">
        <ele>759.017334</ele>
        <time>2015-11-03T16:57:50Z</time>
      </trkpt>
      <trkpt lat="45.89587" lon="2.87132">
        <ele>759.003479</ele>
        <time>2015-11-03T16:57:50Z</time>
      </trkpt>
      <trkpt lat="45.89587" lon="2.87125">
        <ele>759.05127</ele>
        <time>2015-11-03T16:57:50Z</time>
      </trkpt>
      <trkpt lat="45.89586" lon="2.87117">
        <ele>759.164978</ele>
        <time>2015-11-03T16:57:50Z</time>
      </trkpt>
      <trkpt lat="45.89584" lon="2.87108">
        <ele>759.289978</ele>
        <time>2015-11-03T16:57:50Z</time>
      </trkpt>
      <trkpt lat="45.89583" lon="2.87101">
        <ele>759.39624</ele>
        <time>2015-11-03T16:57:50Z</time>
      </trkpt>
      <trkpt lat="45.89583" lon="2.87092">
        <ele>759.515015</ele>
        <time>2015-11-03T16:57:50Z</time>
      </trkpt>
      <trkpt lat="45.89585" lon="2.87085">
        <ele>759.66626</ele>
        <time>2015-11-03T16:57:50Z</time>
      </trkpt>
      <trkpt lat="45.89584" lon="2.87076">
        <ele>759.796265</ele>
        <time>2015-11-03T16:57:50Z</time>
      </trkpt>
      <trkpt lat="45.89587" lon="2.87068">
        <ele>759.932495</ele>
        <time>2015-11-03T16:57:50Z</time>
      </trkpt>
      <trkpt lat="45.8959" lon="2.87062">
        <ele>760.086853</ele>
        <time>2015-11-03T16:57:50Z</time>
      </trkpt>
      <trkpt lat="45.89593" lon="2.87055">
        <ele>760.345825</ele>
        <time>2015-11-03T16:57:50Z</time>
      </trkpt>
      <trkpt lat="45.89596" lon="2.87048">
        <ele>760.606262</ele>
        <time>2015-11-03T16:57:50Z</time>
      </trkpt>
      <trkpt lat="45.89598" lon="2.87042">
        <ele>760.831421</ele>
        <time>2015-11-03T16:57:50Z</time>
      </trkpt>
      <trkpt lat="45.896" lon="2.87034">
        <ele>761.06427</ele>
        <time>2015-11-03T16:57:50Z</time>
      </trkpt>
      <trkpt lat="45.89604" lon="2.87027">
        <ele>761.223328</ele>
        <time>2015-11-03T16:57:50Z</time>
      </trkpt>
      <trkpt lat="45.89609" lon="2.87023">
        <ele>761.240662</ele>
        <time>2015-11-03T16:57:50Z</time>
      </trkpt>
      <trkpt lat="45.89613" lon="2.87017">
        <ele>761.290527</ele>
        <time>2015-11-03T16:57:50Z</time>
      </trkpt>
      <trkpt lat="45.89616" lon="2.87011">
        <ele>761.32843</ele>
        <time>2015-11-03T16:57:50Z</time>
      </trkpt>
      <trkpt lat="45.89621" lon="2.87005">
        <ele>761.294006</ele>
        <time>2015-11-03T16:57:50Z</time>
      </trkpt>
      <trkpt lat="45.89625" lon="2.86998">
        <ele>761.259277</ele>
        <time>2015-11-03T16:57:50Z</time>
      </trkpt>
      <trkpt lat="45.89629" lon="2.86991">
        <ele>761.223022</ele>
        <time>2015-11-03T16:57:50Z</time>
      </trkpt>
      <trkpt lat="45.89631" lon="2.86983">
        <ele>761.246155</ele>
        <time>2015-11-03T16:57:50Z</time>
      </trkpt>
      <trkpt lat="45.89634" lon="2.86976">
        <ele>761.300354</ele>
        <time>2015-11-03T16:57:50Z</time>
      </trkpt>
      <trkpt lat="45.89636" lon="2.86968">
        <ele>761.360718</ele>
        <time>2015-11-03T16:57:50Z</time>
      </trkpt>
      <trkpt lat="45.89637" lon="2.8696">
        <ele>761.436646</ele>
        <time>2015-11-03T16:57:50Z</time>
      </trkpt>
      <trkpt lat="45.89637" lon="2.8695">
        <ele>761.560669</ele>
        <time>2015-11-03T16:57:50Z</time>
      </trkpt>
      <trkpt lat="45.89637" lon="2.86941">
        <ele>761.633484</ele>
        <time>2015-11-03T16:57:50Z</time>
      </trkpt>
      <trkpt lat="45.89638" lon="2.86934">
        <ele>761.693542</ele>
        <time>2015-11-03T16:57:50Z</time>
      </trkpt>
      <trkpt lat="45.89638" lon="2.86926">
        <ele>761.882568</ele>
        <time>2015-11-03T16:57:50Z</time>
      </trkpt>
      <trkpt lat="45.89638" lon="2.86917">
        <ele>762.103699</ele>
        <time>2015-11-03T16:57:50Z</time>
      </trkpt>
      <trkpt lat="45.89639" lon="2.86909">
        <ele>762.224243</ele>
        <time>2015-11-03T16:57:50Z</time>
      </trkpt>
      <trkpt lat="45.8964" lon="2.86901">
        <ele>762.288147</ele>
        <time>2015-11-03T16:57:50Z</time>
      </trkpt>
      <trkpt lat="45.89641" lon="2.86894">
        <ele>762.366882</ele>
        <time>2015-11-03T16:57:50Z</time>
      </trkpt>
      <trkpt lat="45.89642" lon="2.86886">
        <ele>762.485596</ele>
        <time>2015-11-03T16:57:50Z</time>
      </trkpt>
      <trkpt lat="45.89643" lon="2.86877">
        <ele>762.579529</ele>
        <time>2015-11-03T16:57:50Z</time>
      </trkpt>
      <trkpt lat="45.89642" lon="2.86868">
        <ele>762.951477</ele>
        <time>2015-11-03T16:57:50Z</time>
      </trkpt>
      <trkpt lat="45.89642" lon="2.86859">
        <ele>763.788147</ele>
        <time>2015-11-03T16:57:50Z</time>
      </trkpt>
      <trkpt lat="45.89641" lon="2.86852">
        <ele>764.470459</ele>
        <time>2015-11-03T16:57:50Z</time>
      </trkpt>
      <trkpt lat="45.89641" lon="2.86845">
        <ele>765.132141</ele>
        <time>2015-11-03T16:57:50Z</time>
      </trkpt>
      <trkpt lat="45.89637" lon="2.8684">
        <ele>766.075378</ele>
        <time>2015-11-03T16:57:50Z</time>
      </trkpt>
      <trkpt lat="45.89634" lon="2.86833">
        <ele>767.147156</ele>
        <time>2015-11-03T16:57:50Z</time>
      </trkpt>
      <trkpt lat="45.89633" lon="2.86826">
        <ele>767.916687</ele>
        <time>2015-11-03T16:57:50Z</time>
      </trkpt>
      <trkpt lat="45.89635" lon="2.86822">
        <ele>767.954773</ele>
        <time>2015-11-03T16:57:50Z</time>
      </trkpt>
      <trkpt lat="45.8964" lon="2.86824">
        <ele>767.080994</ele>
        <time>2015-11-03T16:57:50Z</time>
      </trkpt>
      <trkpt lat="45.89645" lon="2.86819">
        <ele>766.840271</ele>
        <time>2015-11-03T16:57:50Z</time>
      </trkpt>
      <trkpt lat="45.8965" lon="2.86816">
        <ele>766.266663</ele>
        <time>2015-11-03T16:57:50Z</time>
      </trkpt>
      <trkpt lat="45.89654" lon="2.86813">
        <ele>765.885559</ele>
        <time>2015-11-03T16:57:50Z</time>
      </trkpt>
      <trkpt lat="45.8966" lon="2.8681">
        <ele>765.266296</ele>
        <time>2015-11-03T16:57:50Z</time>
      </trkpt>
      <trkpt lat="45.89665" lon="2.86805">
        <ele>764.877991</ele>
        <time>2015-11-03T16:57:50Z</time>
      </trkpt>
      <trkpt lat="45.8967" lon="2.86802">
        <ele>764.542297</ele>
        <time>2015-11-03T16:57:50Z</time>
      </trkpt>
      <trkpt lat="45.89674" lon="2.86797">
        <ele>764.389893</ele>
        <time>2015-11-03T16:57:50Z</time>
      </trkpt>
      <trkpt lat="45.8968" lon="2.86792">
        <ele>763.866333</ele>
        <time>2015-11-03T16:57:50Z</time>
      </trkpt>
      <trkpt lat="45.89683" lon="2.86786">
        <ele>763.687134</ele>
        <time>2015-11-03T16:57:50Z</time>
      </trkpt>
      <trkpt lat="45.89689" lon="2.86782">
        <ele>762.780701</ele>
        <time>2015-11-03T16:57:50Z</time>
      </trkpt>
      <trkpt lat="45.89693" lon="2.86775">
        <ele>762.668213</ele>
        <time>2015-11-03T16:57:50Z</time>
      </trkpt>
      <trkpt lat="45.89695" lon="2.86769">
        <ele>762.768127</ele>
        <time>2015-11-03T16:57:50Z</time>
      </trkpt>
      <trkpt lat="45.89699" lon="2.86766">
        <ele>762.026367</ele>
        <time>2015-11-03T16:57:50Z</time>
      </trkpt>
      <trkpt lat="45.897" lon="2.86764">
        <ele>761.868225</ele>
        <time>2015-11-03T16:57:50Z</time>
      </trkpt>
      <trkpt lat="45.89702" lon="2.86763">
        <ele>761.402832</ele>
        <time>2015-11-03T16:57:50Z</time>
      </trkpt>
      <trkpt lat="45.89704" lon="2.86759">
        <ele>761.31189</ele>
        <time>2015-11-03T16:57:50Z</time>
      </trkpt>
      <trkpt lat="45.89712" lon="2.86753">
        <ele>759.779175</ele>
        <time>2015-11-03T16:57:50Z</time>
      </trkpt>
      <trkpt lat="45.89717" lon="2.86747">
        <ele>758.942017</ele>
        <time>2015-11-03T16:57:50Z</time>
      </trkpt>
      <trkpt lat="45.89721" lon="2.86741">
        <ele>758.164612</ele>
        <time>2015-11-03T16:57:50Z</time>
      </trkpt>
      <trkpt lat="45.89724" lon="2.86735">
        <ele>757.986511</ele>
        <time>2015-11-03T16:57:50Z</time>
      </trkpt>
      <trkpt lat="45.89727" lon="2.86728">
        <ele>757.981018</ele>
        <time>2015-11-03T16:57:50Z</time>
      </trkpt>
      <trkpt lat="45.89729" lon="2.8672">
        <ele>757.962341</ele>
        <time>2015-11-03T16:57:50Z</time>
      </trkpt>
      <trkpt lat="45.89732" lon="2.86712">
        <ele>757.976624</ele>
        <time>2015-11-03T16:57:50Z</time>
      </trkpt>
      <trkpt lat="45.89736" lon="2.86706">
        <ele>757.672058</ele>
        <time>2015-11-03T16:57:50Z</time>
      </trkpt>
      <trkpt lat="45.89739" lon="2.867">
        <ele>757.450989</ele>
        <time>2015-11-03T16:57:50Z</time>
      </trkpt>
      <trkpt lat="45.89742" lon="2.86693">
        <ele>757.310913</ele>
        <time>2015-11-03T16:57:50Z</time>
      </trkpt>
      <trkpt lat="45.89745" lon="2.86688">
        <ele>757.21283</ele>
        <time>2015-11-03T16:57:50Z</time>
      </trkpt>
      <trkpt lat="45.89749" lon="2.86681">
        <ele>757.050476</ele>
        <time>2015-11-03T16:57:50Z</time>
      </trkpt>
      <trkpt lat="45.89752" lon="2.86675">
        <ele>756.960144</ele>
        <time>2015-11-03T16:57:50Z</time>
      </trkpt>
      <trkpt lat="45.89755" lon="2.86668">
        <ele>757.310425</ele>
        <time>2015-11-03T16:57:50Z</time>
      </trkpt>
      <trkpt lat="45.89757" lon="2.8666">
        <ele>757.745972</ele>
        <time>2015-11-03T16:57:50Z</time>
      </trkpt>
      <trkpt lat="45.89759" lon="2.86654">
        <ele>758.192261</ele>
        <time>2015-11-03T16:57:50Z</time>
      </trkpt>
      <trkpt lat="45.89761" lon="2.86646">
        <ele>758.798706</ele>
        <time>2015-11-03T16:57:50Z</time>
      </trkpt>
      <trkpt lat="45.89762" lon="2.86638">
        <ele>759.614441</ele>
        <time>2015-11-03T16:57:50Z</time>
      </trkpt>
      <trkpt lat="45.89763" lon="2.8663">
        <ele>760.463318</ele>
        <time>2015-11-03T16:57:50Z</time>
      </trkpt>
      <trkpt lat="45.89765" lon="2.86623">
        <ele>761.19574</ele>
        <time>2015-11-03T16:57:50Z</time>
      </trkpt>
      <trkpt lat="45.89767" lon="2.86615">
        <ele>761.970154</ele>
        <time>2015-11-03T16:57:50Z</time>
      </trkpt>
      <trkpt lat="45.89769" lon="2.86609">
        <ele>761.860901</ele>
        <time>2015-11-03T16:57:50Z</time>
      </trkpt>
      <trkpt lat="45.89771" lon="2.86603">
        <ele>761.707764</ele>
        <time>2015-11-03T16:57:50Z</time>
      </trkpt>
      <trkpt lat="45.89773" lon="2.86595">
        <ele>761.654419</ele>
        <time>2015-11-03T16:57:50Z</time>
      </trkpt>
      <trkpt lat="45.89776" lon="2.86588">
        <ele>761.547974</ele>
        <time>2015-11-03T16:57:50Z</time>
      </trkpt>
      <trkpt lat="45.89778" lon="2.8658">
        <ele>761.733154</ele>
        <time>2015-11-03T16:57:50Z</time>
      </trkpt>
      <trkpt lat="45.89779" lon="2.86571">
        <ele>761.930237</ele>
        <time>2015-11-03T16:57:50Z</time>
      </trkpt>
      <trkpt lat="45.89781" lon="2.86564">
        <ele>762.075623</ele>
        <time>2015-11-03T16:57:50Z</time>
      </trkpt>
      <trkpt lat="45.89782" lon="2.86557">
        <ele>762.371521</ele>
        <time>2015-11-03T16:57:50Z</time>
      </trkpt>
      <trkpt lat="45.89782" lon="2.86549">
        <ele>762.695618</ele>
        <time>2015-11-03T16:57:50Z</time>
      </trkpt>
      <trkpt lat="45.89783" lon="2.86542">
        <ele>762.60199</ele>
        <time>2015-11-03T16:57:50Z</time>
      </trkpt>
      <trkpt lat="45.89783" lon="2.86535">
        <ele>762.511841</ele>
        <time>2015-11-03T16:57:50Z</time>
      </trkpt>
      <trkpt lat="45.89783" lon="2.86526">
        <ele>762.486389</ele>
        <time>2015-11-03T16:57:50Z</time>
      </trkpt>
      <trkpt lat="45.89782" lon="2.86518">
        <ele>762.511719</ele>
        <time>2015-11-03T16:57:50Z</time>
      </trkpt>
      <trkpt lat="45.89781" lon="2.8651">
        <ele>762.524414</ele>
        <time>2015-11-03T16:57:50Z</time>
      </trkpt>
      <trkpt lat="45.89781" lon="2.86504">
        <ele>762.48877</ele>
        <time>2015-11-03T16:57:50Z</time>
      </trkpt>
      <trkpt lat="45.89781" lon="2.86496">
        <ele>762.451904</ele>
        <time>2015-11-03T16:57:50Z</time>
      </trkpt>
      <trkpt lat="45.8978" lon="2.86488">
        <ele>762.49054</ele>
        <time>2015-11-03T16:57:50Z</time>
      </trkpt>
      <trkpt lat="45.89779" lon="2.86481">
        <ele>762.256531</ele>
        <time>2015-11-03T16:57:50Z</time>
      </trkpt>
      <trkpt lat="45.89777" lon="2.86481">
        <ele>762.291138</ele>
        <time>2015-11-03T16:57:50Z</time>
      </trkpt>
      <trkpt lat="45.89778" lon="2.86475">
        <ele>761.908508</ele>
        <time>2015-11-03T16:57:50Z</time>
      </trkpt>
      <trkpt lat="45.8978" lon="2.86467">
        <ele>761.393738</ele>
        <time>2015-11-03T16:57:50Z</time>
      </trkpt>
      <trkpt lat="45.89782" lon="2.8646">
        <ele>760.897217</ele>
        <time>2015-11-03T16:57:50Z</time>
      </trkpt>
      <trkpt lat="45.8978" lon="2.86453">
        <ele>760.568848</ele>
        <time>2015-11-03T16:57:50Z</time>
      </trkpt>
      <trkpt lat="45.89778" lon="2.86447">
        <ele>760.299133</ele>
        <time>2015-11-03T16:57:50Z</time>
      </trkpt>
      <trkpt lat="45.89775" lon="2.86451">
        <ele>760.587036</ele>
        <time>2015-11-03T16:57:50Z</time>
      </trkpt>
      <trkpt lat="45.89772" lon="2.86448">
        <ele>760.534851</ele>
        <time>2015-11-03T16:57:50Z</time>
      </trkpt>
      <trkpt lat="45.89767" lon="2.86446">
        <ele>760.560791</ele>
        <time>2015-11-03T16:57:50Z</time>
      </trkpt>
      <trkpt lat="45.89763" lon="2.86443">
        <ele>760.531494</ele>
        <time>2015-11-03T16:57:50Z</time>
      </trkpt>
      <trkpt lat="45.89757" lon="2.86442">
        <ele>760.641785</ele>
        <time>2015-11-03T16:57:50Z</time>
      </trkpt>
      <trkpt lat="45.89752" lon="2.86438">
        <ele>760.519043</ele>
        <time>2015-11-03T16:57:50Z</time>
      </trkpt>
      <trkpt lat="45.89746" lon="2.86435">
        <ele>760.499695</ele>
        <time>2015-11-03T16:57:50Z</time>
      </trkpt>
      <trkpt lat="45.8974" lon="2.86433">
        <ele>760.47467</ele>
        <time>2015-11-03T16:57:50Z</time>
      </trkpt>
      <trkpt lat="45.89735" lon="2.8643">
        <ele>760.439636</ele>
        <time>2015-11-03T16:57:50Z</time>
      </trkpt>
      <trkpt lat="45.8973" lon="2.86428">
        <ele>760.384033</ele>
        <time>2015-11-03T16:57:50Z</time>
      </trkpt>
      <trkpt lat="45.89723" lon="2.86425">
        <ele>760.34552</ele>
        <time>2015-11-03T16:57:50Z</time>
      </trkpt>
      <trkpt lat="45.89717" lon="2.86422">
        <ele>760.387817</ele>
        <time>2015-11-03T16:57:50Z</time>
      </trkpt>
      <trkpt lat="45.89713" lon="2.86418">
        <ele>760.283142</ele>
        <time>2015-11-03T16:57:50Z</time>
      </trkpt>
      <trkpt lat="45.89708" lon="2.86414">
        <ele>760.229553</ele>
        <time>2015-11-03T16:57:50Z</time>
      </trkpt>
      <trkpt lat="45.89702" lon="2.86411">
        <ele>760.227478</ele>
        <time>2015-11-03T16:57:50Z</time>
      </trkpt>
      <trkpt lat="45.89696" lon="2.86408">
        <ele>760.186035</ele>
        <time>2015-11-03T16:57:50Z</time>
      </trkpt>
      <trkpt lat="45.89691" lon="2.86404">
        <ele>760.06427</ele>
        <time>2015-11-03T16:57:50Z</time>
      </trkpt>
      <trkpt lat="45.89687" lon="2.86403">
        <ele>760.116638</ele>
        <time>2015-11-03T16:57:50Z</time>
      </trkpt>
      <trkpt lat="45.89681" lon="2.864">
        <ele>760.058044</ele>
        <time>2015-11-03T16:57:50Z</time>
      </trkpt>
      <trkpt lat="45.89676" lon="2.86398">
        <ele>760.01123</ele>
        <time>2015-11-03T16:57:50Z</time>
      </trkpt>
      <trkpt lat="45.89671" lon="2.86395">
        <ele>760.031006</ele>
        <time>2015-11-03T16:57:50Z</time>
      </trkpt>
      <trkpt lat="45.89665" lon="2.86393">
        <ele>760.158386</ele>
        <time>2015-11-03T16:57:50Z</time>
      </trkpt>
      <trkpt lat="45.89661" lon="2.86393">
        <ele>760.294678</ele>
        <time>2015-11-03T16:57:50Z</time>
      </trkpt>
      <trkpt lat="45.89656" lon="2.8639">
        <ele>760.257507</ele>
        <time>2015-11-03T16:57:50Z</time>
      </trkpt>
      <trkpt lat="45.8965" lon="2.86389">
        <ele>760.347473</ele>
        <time>2015-11-03T16:57:50Z</time>
      </trkpt>
      <trkpt lat="45.89646" lon="2.86387">
        <ele>760.392883</ele>
        <time>2015-11-03T16:57:50Z</time>
      </trkpt>
      <trkpt lat="45.89639" lon="2.86383">
        <ele>760.217529</ele>
        <time>2015-11-03T16:57:50Z</time>
      </trkpt>
      <trkpt lat="45.89632" lon="2.86381">
        <ele>760.212097</ele>
        <time>2015-11-03T16:57:50Z</time>
      </trkpt>
      <trkpt lat="45.89626" lon="2.86377">
        <ele>760.155396</ele>
        <time>2015-11-03T16:57:50Z</time>
      </trkpt>
      <trkpt lat="45.89621" lon="2.86374">
        <ele>760.08844</ele>
        <time>2015-11-03T16:57:50Z</time>
      </trkpt>
      <trkpt lat="45.89619" lon="2.86373">
        <ele>760.010315</ele>
        <time>2015-11-03T16:57:50Z</time>
      </trkpt>
      <trkpt lat="45.89614" lon="2.86371">
        <ele>760.121399</ele>
        <time>2015-11-03T16:57:50Z</time>
      </trkpt>
      <trkpt lat="45.89611" lon="2.86368">
        <ele>760.01416</ele>
        <time>2015-11-03T16:57:50Z</time>
      </trkpt>
      <trkpt lat="45.89602" lon="2.86366">
        <ele>760.358398</ele>
        <time>2015-11-03T16:57:50Z</time>
      </trkpt>
      <trkpt lat="45.89593" lon="2.86364">
        <ele>760.667358</ele>
        <time>2015-11-03T16:57:50Z</time>
      </trkpt>
      <trkpt lat="45.89585" lon="2.8636">
        <ele>760.72998</ele>
        <time>2015-11-03T16:57:50Z</time>
      </trkpt>
      <trkpt lat="45.89577" lon="2.86358">
        <ele>760.786865</ele>
        <time>2015-11-03T16:57:50Z</time>
      </trkpt>
      <trkpt lat="45.89578" lon="2.86356">
        <ele>760.578491</ele>
        <time>2015-11-03T16:57:50Z</time>
      </trkpt>
      <trkpt lat="45.89573" lon="2.86354">
        <ele>760.616638</ele>
        <time>2015-11-03T16:57:50Z</time>
      </trkpt>
      <trkpt lat="45.89568" lon="2.8635">
        <ele>760.50769</ele>
        <time>2015-11-03T16:57:50Z</time>
      </trkpt>
      <trkpt lat="45.89565" lon="2.86347">
        <ele>760.375671</ele>
        <time>2015-11-03T16:57:50Z</time>
      </trkpt>
      <trkpt lat="45.89565" lon="2.86344">
        <ele>760.099365</ele>
        <time>2015-11-03T16:57:50Z</time>
      </trkpt>
      <trkpt lat="45.89559" lon="2.86341">
        <ele>760.127625</ele>
        <time>2015-11-03T16:57:50Z</time>
      </trkpt>
      <trkpt lat="45.8955" lon="2.86336">
        <ele>760.046082</ele>
        <time>2015-11-03T16:57:50Z</time>
      </trkpt>
      <trkpt lat="45.89542" lon="2.86333">
        <ele>760.112305</ele>
        <time>2015-11-03T16:57:50Z</time>
      </trkpt>
      <trkpt lat="45.89535" lon="2.8633">
        <ele>760.196655</ele>
        <time>2015-11-03T16:57:50Z</time>
      </trkpt>
      <trkpt lat="45.89529" lon="2.86329">
        <ele>760.424805</ele>
        <time>2015-11-03T16:57:50Z</time>
      </trkpt>
      <trkpt lat="45.89523" lon="2.86326">
        <ele>760.42334</ele>
        <time>2015-11-03T16:57:50Z</time>
      </trkpt>
      <trkpt lat="45.89521" lon="2.86322">
        <ele>760.224976</ele>
        <time>2015-11-03T16:57:50Z</time>
      </trkpt>
      <trkpt lat="45.89513" lon="2.86319">
        <ele>760.409119</ele>
        <time>2015-11-03T16:57:50Z</time>
      </trkpt>
      <trkpt lat="45.89507" lon="2.86319">
        <ele>760.765503</ele>
        <time>2015-11-03T16:57:50Z</time>
      </trkpt>
      <trkpt lat="45.89505" lon="2.86317">
        <ele>760.758057</ele>
        <time>2015-11-03T16:57:50Z</time>
      </trkpt>
      <trkpt lat="45.89501" lon="2.86317">
        <ele>760.989929</ele>
        <time>2015-11-03T16:57:50Z</time>
      </trkpt>
      <trkpt lat="45.89494" lon="2.86317">
        <ele>761.436279</ele>
        <time>2015-11-03T16:57:50Z</time>
      </trkpt>
      <trkpt lat="45.89486" lon="2.86316">
        <ele>761.921265</ele>
        <time>2015-11-03T16:57:50Z</time>
      </trkpt>
      <trkpt lat="45.89479" lon="2.86318">
        <ele>762.5</ele>
        <time>2015-11-03T16:57:50Z</time>
      </trkpt>
      <trkpt lat="45.89474" lon="2.86319">
        <ele>762.956238</ele>
        <time>2015-11-03T16:57:50Z</time>
      </trkpt>
      <trkpt lat="45.89465" lon="2.86319">
        <ele>763.526245</ele>
        <time>2015-11-03T16:57:50Z</time>
      </trkpt>
      <trkpt lat="45.89459" lon="2.86319">
        <ele>763.956238</ele>
        <time>2015-11-03T16:57:50Z</time>
      </trkpt>
      <trkpt lat="45.89455" lon="2.86322">
        <ele>764.44751</ele>
        <time>2015-11-03T16:57:50Z</time>
      </trkpt>
      <trkpt lat="45.8945" lon="2.86321">
        <ele>764.9245</ele>
        <time>2015-11-03T16:57:50Z</time>
      </trkpt>
      <trkpt lat="45.89448" lon="2.8632">
        <ele>765.096069</ele>
        <time>2015-11-03T16:57:50Z</time>
      </trkpt>
      <trkpt lat="45.89442" lon="2.86315">
        <ele>765.429688</ele>
        <time>2015-11-03T16:57:50Z</time>
      </trkpt>
      <trkpt lat="45.89441" lon="2.86316">
        <ele>765.600708</ele>
        <time>2015-11-03T16:57:50Z</time>
      </trkpt>
      <trkpt lat="45.89439" lon="2.86315">
        <ele>765.882996</ele>
        <time>2015-11-03T16:57:50Z</time>
      </trkpt>
      <trkpt lat="45.89435" lon="2.86306">
        <ele>765.750854</ele>
        <time>2015-11-03T16:57:50Z</time>
      </trkpt>
      <trkpt lat="45.89429" lon="2.86298">
        <ele>765.886719</ele>
        <time>2015-11-03T16:57:50Z</time>
      </trkpt>
      <trkpt lat="45.89427" lon="2.86291">
        <ele>765.688843</ele>
        <time>2015-11-03T16:57:50Z</time>
      </trkpt>
      <trkpt lat="45.89422" lon="2.86285">
        <ele>766.133789</ele>
        <time>2015-11-03T16:57:50Z</time>
      </trkpt>
      <trkpt lat="45.89419" lon="2.86279">
        <ele>766.528748</ele>
        <time>2015-11-03T16:57:50Z</time>
      </trkpt>
      <trkpt lat="45.89417" lon="2.86276">
        <ele>766.748779</ele>
        <time>2015-11-03T16:57:50Z</time>
      </trkpt>
      <trkpt lat="45.89413" lon="2.86272">
        <ele>767.102478</ele>
        <time>2015-11-03T16:57:50Z</time>
      </trkpt>
      <trkpt lat="45.89409" lon="2.86268">
        <ele>767.581238</ele>
        <time>2015-11-03T16:57:50Z</time>
      </trkpt>
      <trkpt lat="45.89404" lon="2.86259">
        <ele>768.123108</ele>
        <time>2015-11-03T16:57:50Z</time>
      </trkpt>
      <trkpt lat="45.89401" lon="2.86254">
        <ele>768.366699</ele>
        <time>2015-11-03T16:57:50Z</time>
      </trkpt>
      <trkpt lat="45.89397" lon="2.86249">
        <ele>768.830994</ele>
        <time>2015-11-03T16:57:50Z</time>
      </trkpt>
      <trkpt lat="45.89391" lon="2.86243">
        <ele>769.390015</ele>
        <time>2015-11-03T16:57:50Z</time>
      </trkpt>
      <trkpt lat="45.89386" lon="2.86239">
        <ele>769.93103</ele>
        <time>2015-11-03T16:57:50Z</time>
      </trkpt>
      <trkpt lat="45.89383" lon="2.86235">
        <ele>770.190491</ele>
        <time>2015-11-03T16:57:50Z</time>
      </trkpt>
      <trkpt lat="45.8938" lon="2.86235">
        <ele>770.442749</ele>
        <time>2015-11-03T16:57:50Z</time>
      </trkpt>
      <trkpt lat="45.89374" lon="2.8623">
        <ele>771.02478</ele>
        <time>2015-11-03T16:57:50Z</time>
      </trkpt>
      <trkpt lat="45.89368" lon="2.86225">
        <ele>771.581055</ele>
        <time>2015-11-03T16:57:50Z</time>
      </trkpt>
      <trkpt lat="45.89366" lon="2.86222">
        <ele>771.75</ele>
        <time>2015-11-03T16:57:50Z</time>
      </trkpt>
      <trkpt lat="45.89367" lon="2.86219">
        <ele>771.724976</ele>
        <time>2015-11-03T16:57:50Z</time>
      </trkpt>
      <trkpt lat="45.89362" lon="2.86219">
        <ele>772.196899</ele>
        <time>2015-11-03T16:57:50Z</time>
      </trkpt>
      <trkpt lat="45.89357" lon="2.86218">
        <ele>772.736328</ele>
        <time>2015-11-03T16:57:50Z</time>
      </trkpt>
      <trkpt lat="45.89351" lon="2.86215">
        <ele>773.436646</ele>
        <time>2015-11-03T16:57:50Z</time>
      </trkpt>
      <trkpt lat="45.89345" lon="2.86213">
        <ele>774.056458</ele>
        <time>2015-11-03T16:57:50Z</time>
      </trkpt>
      <trkpt lat="45.89342" lon="2.86213">
        <ele>774.34375</ele>
        <time>2015-11-03T16:57:50Z</time>
      </trkpt>
      <trkpt lat="45.89335" lon="2.86211">
        <ele>775.12323</ele>
        <time>2015-11-03T16:57:50Z</time>
      </trkpt>
      <trkpt lat="45.89328" lon="2.86208">
        <ele>775.853577</ele>
        <time>2015-11-03T16:57:50Z</time>
      </trkpt>
      <trkpt lat="45.89324" lon="2.86206">
        <ele>776.208618</ele>
        <time>2015-11-03T16:57:50Z</time>
      </trkpt>
      <trkpt lat="45.89319" lon="2.86206">
        <ele>776.70636</ele>
        <time>2015-11-03T16:57:50Z</time>
      </trkpt>
      <trkpt lat="45.89315" lon="2.86204">
        <ele>777.0755</ele>
        <time>2015-11-03T16:57:50Z</time>
      </trkpt>
      <trkpt lat="45.89308" lon="2.86204">
        <ele>777.594177</ele>
        <time>2015-11-03T16:57:50Z</time>
      </trkpt>
      <trkpt lat="45.89303" lon="2.86204">
        <ele>778.033691</ele>
        <time>2015-11-03T16:57:50Z</time>
      </trkpt>
      <trkpt lat="45.89299" lon="2.86197">
        <ele>778.212769</ele>
        <time>2015-11-03T16:57:50Z</time>
      </trkpt>
      <trkpt lat="45.89294" lon="2.86191">
        <ele>778.448303</ele>
        <time>2015-11-03T16:57:50Z</time>
      </trkpt>
      <trkpt lat="45.89291" lon="2.86185">
        <ele>778.577393</ele>
        <time>2015-11-03T16:57:50Z</time>
      </trkpt>
      <trkpt lat="45.89289" lon="2.86179">
        <ele>778.538147</ele>
        <time>2015-11-03T16:57:50Z</time>
      </trkpt>
      <trkpt lat="45.89292" lon="2.86173">
        <ele>778.178162</ele>
        <time>2015-11-03T16:57:50Z</time>
      </trkpt>
      <trkpt lat="45.89295" lon="2.86166">
        <ele>777.793213</ele>
        <time>2015-11-03T16:57:50Z</time>
      </trkpt>
      <trkpt lat="45.89298" lon="2.8616">
        <ele>777.454468</ele>
        <time>2015-11-03T16:57:50Z</time>
      </trkpt>
      <trkpt lat="45.89303" lon="2.86155">
        <ele>777.049377</ele>
        <time>2015-11-03T16:57:50Z</time>
      </trkpt>
      <trkpt lat="45.89305" lon="2.86149">
        <ele>776.856018</ele>
        <time>2015-11-03T16:57:50Z</time>
      </trkpt>
      <trkpt lat="45.89308" lon="2.86141">
        <ele>776.626038</ele>
        <time>2015-11-03T16:57:50Z</time>
      </trkpt>
      <trkpt lat="45.89311" lon="2.86136">
        <ele>776.421326</ele>
        <time>2015-11-03T16:57:50Z</time>
      </trkpt>
      <trkpt lat="45.89313" lon="2.86129">
        <ele>776.301208</ele>
        <time>2015-11-03T16:57:50Z</time>
      </trkpt>
      <trkpt lat="45.89305" lon="2.86123">
        <ele>776.607178</ele>
        <time>2015-11-03T16:57:50Z</time>
      </trkpt>
      <trkpt lat="45.89295" lon="2.86117">
        <ele>776.929199</ele>
        <time>2015-11-03T16:57:50Z</time>
      </trkpt>
      <trkpt lat="45.89293" lon="2.86111">
        <ele>776.89386</ele>
        <time>2015-11-03T16:57:50Z</time>
      </trkpt>
      <trkpt lat="45.89291" lon="2.86105">
        <ele>776.844543</ele>
        <time>2015-11-03T16:57:50Z</time>
      </trkpt>
      <trkpt lat="45.89284" lon="2.86099">
        <ele>776.904541</ele>
        <time>2015-11-03T16:57:50Z</time>
      </trkpt>
      <trkpt lat="45.89271" lon="2.86093">
        <ele>776.981262</ele>
        <time>2015-11-03T16:57:50Z</time>
      </trkpt>
      <trkpt lat="45.89258" lon="2.86087">
        <ele>776.890015</ele>
        <time>2015-11-03T16:57:50Z</time>
      </trkpt>
    </trkseg>
  </trk>
</gpx>